| time (UTC) | temp F | wind direction | speed MPH | gust MPH | rain 1hr in | rain 24hr in | rain mn in | humidity % | barometer mb |
| 20260507155716 | 72 | 256 | 1.0 | 6.0 | 0.00 | 0.00 | 0.00 | 48 | 1017.7 |
| 20260507155603 | 72 | 255 | 1.0 | 6.0 | 0.00 | 0.00 | 0.00 | 48 | 1017.7 |
| 20260507155516 | 72 | 254 | 1.0 | 6.0 | 0.00 | 0.00 | 0.00 | 48 | 1017.7 |
| 20260507155404 | 72 | 252 | 1.0 | 6.0 | 0.00 | 0.00 | 0.00 | 48 | 1017.7 |
| 20260507155316 | 72 | 251 | 1.0 | 6.0 | 0.00 | 0.00 | 0.00 | 48 | 1017.7 |
| 20260507155203 | 72 | 251 | 1.0 | 6.0 | 0.00 | 0.00 | 0.00 | 48 | 1017.6 |
| 20260507155116 | 72 | 251 | 1.0 | 6.0 | 0.00 | 0.00 | 0.00 | 48 | 1017.5 |
| 20260507155004 | 72 | 251 | 1.0 | 6.0 | 0.00 | 0.00 | 0.00 | 48 | 1017.5 |
| 20260507154915 | 72 | 251 | 1.0 | 6.0 | 0.00 | 0.00 | 0.00 | 48 | 1017.5 |
| 20260507154803 | 72 | 251 | 1.0 | 6.0 | 0.00 | 0.00 | 0.00 | 48 | 1017.5 |
| 20260507154716 | 72 | 251 | 1.0 | 6.0 | 0.00 | 0.00 | 0.00 | 49 | 1017.5 |
| 20260507154603 | 72 | 250 | 2.0 | 6.0 | 0.00 | 0.00 | 0.00 | 49 | 1017.5 |
| 20260507154516 | 72 | 250 | 2.0 | 6.0 | 0.00 | 0.00 | 0.00 | 49 | 1017.5 |
| 20260507154403 | 72 | 250 | 2.0 | 6.0 | 0.00 | 0.00 | 0.00 | 48 | 1017.5 |
| 20260507154316 | 72 | 250 | 2.0 | 6.0 | 0.00 | 0.00 | 0.00 | 48 | 1017.5 |
| 20260507154203 | 72 | 250 | 2.0 | 6.0 | 0.00 | 0.00 | 0.00 | 48 | 1017.5 |
| 20260507154116 | 72 | 250 | 2.0 | 6.0 | 0.00 | 0.00 | 0.00 | 48 | 1017.5 |
| 20260507154003 | 72 | 250 | 2.0 | 6.0 | 0.00 | 0.00 | 0.00 | 48 | 1017.6 |
| 20260507153917 | 72 | 248 | 3.0 | 6.0 | 0.00 | 0.00 | 0.00 | 48 | 1017.6 |
| 20260507153804 | 72 | 246 | 3.0 | 6.0 | 0.00 | 0.00 | 0.00 | 49 | 1017.6 |
| 20260507153716 | 72 | 244 | 3.0 | 6.0 | 0.00 | 0.00 | 0.00 | 48 | 1017.6 |
| 20260507153603 | 72 | 240 | 3.0 | 6.0 | 0.00 | 0.00 | 0.00 | 48 | 1017.6 |
| 20260507153516 | 72 | 238 | 3.0 | 6.0 | 0.00 | 0.00 | 0.00 | 48 | 1017.6 |
| 20260507153404 | 72 | 236 | 3.0 | 6.0 | 0.00 | 0.00 | 0.00 | 48 | 1017.6 |
| 20260507153316 | 72 | 234 | 3.0 | 6.0 | 0.00 | 0.00 | 0.00 | 48 | 1017.5 |
| 20260507153203 | 72 | 232 | 3.0 | 9.0 | 0.00 | 0.00 | 0.00 | 48 | 1017.5 |
| 20260507153116 | 72 | 233 | 3.0 | 9.0 | 0.00 | 0.00 | 0.00 | 48 | 1017.6 |
| 20260507153003 | 72 | 233 | 3.0 | 9.0 | 0.00 | 0.00 | 0.00 | 48 | 1017.6 |
| 20260507152916 | 73 | 236 | 4.0 | 9.0 | 0.00 | 0.00 | 0.00 | 47 | 1017.6 |
| 20260507152803 | 73 | 240 | 4.0 | 9.0 | 0.00 | 0.00 | 0.00 | 47 | 1017.6 |
| 20260507152717 | 73 | 244 | 4.0 | 9.0 | 0.00 | 0.00 | 0.00 | 48 | 1017.6 |
| 20260507152604 | 73 | 245 | 4.0 | 9.0 | 0.00 | 0.00 | 0.00 | 47 | 1017.6 |
| 20260507152516 | 73 | 245 | 4.0 | 9.0 | 0.00 | 0.00 | 0.00 | 47 | 1017.6 |
| 20260507152403 | 73 | 243 | 4.0 | 9.0 | 0.00 | 0.00 | 0.00 | 47 | 1017.7 |
| 20260507152316 | 73 | 243 | 4.0 | 9.0 | 0.00 | 0.00 | 0.00 | 46 | 1017.7 |
| 20260507152203 | 73 | 243 | 4.0 | 6.0 | 0.00 | 0.00 | 0.00 | 46 | 1017.7 |
| 20260507152116 | 73 | 236 | 4.0 | 7.0 | 0.00 | 0.00 | 0.00 | 45 | 1017.7 |
| 20260507152004 | 73 | 234 | 4.0 | 7.0 | 0.00 | 0.00 | 0.00 | 44 | 1017.7 |
| 20260507151916 | 73 | 229 | 4.0 | 7.0 | 0.00 | 0.00 | 0.00 | 44 | 1017.7 |
| 20260507151803 | 73 | 226 | 4.0 | 7.0 | 0.00 | 0.00 | 0.00 | 43 | 1017.7 |
| 20260507151717 | 74 | 224 | 4.0 | 7.0 | 0.00 | 0.00 | 0.00 | 43 | 1017.7 |
| 20260507151603 | 74 | 226 | 4.0 | 7.0 | 0.00 | 0.00 | 0.00 | 43 | 1017.7 |
| 20260507151516 | 74 | 227 | 4.0 | 7.0 | 0.00 | 0.00 | 0.00 | 43 | 1017.7 |
| 20260507151404 | 74 | 227 | 4.0 | 7.0 | 0.00 | 0.00 | 0.00 | 43 | 1017.7 |
| 20260507151316 | 74 | 228 | 4.0 | 7.0 | 0.00 | 0.00 | 0.00 | 44 | 1017.7 |
| 20260507151203 | 74 | 228 | 4.0 | 7.0 | 0.00 | 0.00 | 0.00 | 44 | 1017.7 |
| 20260507151116 | 74 | 228 | 4.0 | 7.0 | 0.00 | 0.00 | 0.00 | 44 | 1017.7 |
| 20260507151003 | 74 | 229 | 4.0 | 7.0 | 0.00 | 0.00 | 0.00 | 45 | 1017.7 |
| 20260507150915 | 74 | 231 | 4.0 | 7.0 | 0.00 | 0.00 | 0.00 | 45 | 1017.7 |
| 20260507150803 | 74 | 232 | 4.0 | 7.0 | 0.00 | 0.00 | 0.00 | 45 | 1017.7 |
| 20260507150716 | 74 | 233 | 4.0 | 7.0 | 0.00 | 0.00 | 0.00 | 45 | 1017.7 |
| 20260507150604 | 74 | 228 | 4.0 | 7.0 | 0.00 | 0.00 | 0.00 | 45 | 1017.8 |
| 20260507150516 | 74 | 226 | 4.0 | 7.0 | 0.00 | 0.00 | 0.00 | 45 | 1017.8 |
| 20260507150403 | 74 | 230 | 4.0 | 7.0 | 0.00 | 0.00 | 0.00 | 45 | 1017.8 |
| 20260507150316 | 74 | 233 | 5.0 | 11.0 | 0.00 | 0.00 | 0.00 | 44 | 1017.8 |
| 20260507150203 | 74 | 236 | 5.0 | 13.0 | 0.00 | 0.00 | 0.00 | 43 | 1017.8 |
| 20260507150115 | 74 | 236 | 5.0 | 15.0 | 0.00 | 0.00 | 0.00 | 43 | 1017.8 |
| 20260507150003 | 74 | 234 | 5.0 | 15.0 | 0.00 | 0.00 | 0.00 | 43 | 1017.8 |
| 20260507145915 | 74 | 232 | 5.0 | 15.0 | 0.00 | 0.00 | 0.00 | 42 | 1017.7 |
| 20260507145803 | 74 | 232 | 5.0 | 15.0 | 0.00 | 0.00 | 0.00 | 41 | 1017.7 |
| 20260507145716 | 74 | 233 | 5.0 | 15.0 | 0.00 | 0.00 | 0.00 | 41 | 1017.7 |
| 20260507145604 | 74 | 236 | 5.0 | 15.0 | 0.00 | 0.00 | 0.00 | 40 | 1017.7 |
| 20260507145516 | 74 | 240 | 5.0 | 15.0 | 0.00 | 0.00 | 0.00 | 39 | 1017.8 |
| 20260507145404 | 74 | 241 | 5.0 | 15.0 | 0.00 | 0.00 | 0.00 | 38 | 1017.8 |
| 20260507145316 | 74 | 241 | 5.0 | 15.0 | 0.00 | 0.00 | 0.00 | 38 | 1017.7 |
| 20260507145203 | 74 | 243 | 5.0 | 15.0 | 0.00 | 0.00 | 0.00 | 40 | 1017.7 |
| 20260507145115 | 75 | 247 | 5.0 | 13.0 | 0.00 | 0.00 | 0.00 | 40 | 1017.8 |
| 20260507145003 | 75 | 252 | 5.0 | 13.0 | 0.00 | 0.00 | 0.00 | 39 | 1017.8 |
| 20260507144915 | 75 | 256 | 5.0 | 13.0 | 0.00 | 0.00 | 0.00 | 41 | 1017.7 |
| 20260507144803 | 75 | 256 | 5.0 | 13.0 | 0.00 | 0.00 | 0.00 | 42 | 1017.7 |
| 20260507144716 | 75 | 255 | 5.0 | 13.0 | 0.00 | 0.00 | 0.00 | 43 | 1017.6 |
| 20260507144604 | 75 | 254 | 5.0 | 13.0 | 0.00 | 0.00 | 0.00 | 43 | 1017.6 |
| 20260507144516 | 75 | 252 | 6.0 | 13.0 | 0.00 | 0.00 | 0.00 | 43 | 1017.6 |
| 20260507144404 | 75 | 247 | 6.0 | 13.0 | 0.00 | 0.00 | 0.00 | 41 | 1017.6 |
| 20260507144316 | 76 | 245 | 6.0 | 13.0 | 0.00 | 0.00 | 0.00 | 42 | 1017.6 |
| 20260507144203 | 76 | 240 | 6.0 | 13.0 | 0.00 | 0.00 | 0.00 | 41 | 1017.6 |
| 20260507144116 | 75 | 235 | 6.0 | 13.0 | 0.00 | 0.00 | 0.00 | 41 | 1017.6 |
| 20260507144003 | 76 | 231 | 6.0 | 13.0 | 0.00 | 0.00 | 0.00 | 41 | 1017.6 |
| 20260507143915 | 76 | 227 | 6.0 | 13.0 | 0.00 | 0.00 | 0.00 | 41 | 1017.7 |
| 20260507143803 | 76 | 223 | 6.0 | 13.0 | 0.00 | 0.00 | 0.00 | 41 | 1017.7 |
| 20260507143716 | 76 | 225 | 6.0 | 13.0 | 0.00 | 0.00 | 0.00 | 41 | 1017.7 |
| 20260507143604 | 76 | 223 | 6.0 | 13.0 | 0.00 | 0.00 | 0.00 | 40 | 1017.6 |
| 20260507143516 | 76 | 221 | 6.0 | 13.0 | 0.00 | 0.00 | 0.00 | 41 | 1017.6 |
| 20260507143404 | 76 | 220 | 6.0 | 13.0 | 0.00 | 0.00 | 0.00 | 41 | 1017.5 |
| 20260507143316 | 76 | 219 | 6.0 | 13.0 | 0.00 | 0.00 | 0.00 | 43 | 1017.5 |
| 20260507143203 | 76 | 221 | 6.0 | 13.0 | 0.00 | 0.00 | 0.00 | 41 | 1017.5 |
| 20260507143116 | 76 | 220 | 5.0 | 15.0 | 0.00 | 0.00 | 0.00 | 42 | 1017.4 |
| 20260507143003 | 76 | 220 | 5.0 | 15.0 | 0.00 | 0.00 | 0.00 | 41 | 1017.4 |
| 20260507142915 | 76 | 222 | 5.0 | 15.0 | 0.00 | 0.00 | 0.00 | 41 | 1017.4 |
| 20260507142803 | 76 | 226 | 5.0 | 15.0 | 0.00 | 0.00 | 0.00 | 41 | 1017.4 |
| 20260507142715 | 76 | 223 | 5.0 | 15.0 | 0.00 | 0.00 | 0.00 | 40 | 1017.4 |
| 20260507142603 | 76 | 222 | 5.0 | 15.0 | 0.00 | 0.00 | 0.00 | 40 | 1017.4 |
| 20260507142516 | 76 | 223 | 5.0 | 15.0 | 0.00 | 0.00 | 0.00 | 40 | 1017.4 |
| 20260507142404 | 76 | 225 | 5.0 | 15.0 | 0.00 | 0.00 | 0.00 | 41 | 1017.5 |
| 20260507142316 | 76 | 224 | 5.0 | 15.0 | 0.00 | 0.00 | 0.00 | 40 | 1017.5 |
| 20260507142204 | 76 | 221 | 4.0 | 15.0 | 0.00 | 0.00 | 0.00 | 42 | 1017.4 |
| 20260507142116 | 76 | 226 | 4.0 | 15.0 | 0.00 | 0.00 | 0.00 | 43 | 1017.4 |
| 20260507142003 | 76 | 229 | 4.0 | 15.0 | 0.00 | 0.00 | 0.00 | 43 | 1017.4 |
| 20260507141915 | 76 | 232 | 4.0 | 11.0 | 0.00 | 0.00 | 0.00 | 43 | 1017.4 |
| 20260507141803 | 76 | 233 | 4.0 | 11.0 | 0.00 | 0.00 | 0.00 | 42 | 1017.4 |
| 20260507141716 | 76 | 234 | 4.0 | 11.0 | 0.00 | 0.00 | 0.00 | 42 | 1017.3 |
| 20260507141603 | 76 | 234 | 4.0 | 11.0 | 0.00 | 0.00 | 0.00 | 42 | 1017.4 |
| 20260507141516 | 76 | 232 | 4.0 | 11.0 | 0.00 | 0.00 | 0.00 | 40 | 1017.4 |
| 20260507141404 | 76 | 238 | 4.0 | 11.0 | 0.00 | 0.00 | 0.00 | 40 | 1017.4 |
| 20260507141316 | 75 | 241 | 4.0 | 11.0 | 0.00 | 0.00 | 0.00 | 44 | 1017.4 |
| 20260507141203 | 75 | 244 | 5.0 | 11.0 | 0.00 | 0.00 | 0.00 | 44 | 1017.4 |
| 20260507141115 | 75 | 237 | 5.0 | 11.0 | 0.00 | 0.00 | 0.00 | 43 | 1017.4 |
| 20260507141003 | 75 | 231 | 5.0 | 11.0 | 0.00 | 0.00 | 0.00 | 44 | 1017.5 |
| 20260507140915 | 75 | 227 | 5.0 | 11.0 | 0.00 | 0.00 | 0.00 | 45 | 1017.5 |
| 20260507140803 | 75 | 228 | 5.0 | 13.0 | 0.00 | 0.00 | 0.00 | 45 | 1017.6 |
| 20260507140716 | 76 | 228 | 5.0 | 13.0 | 0.00 | 0.00 | 0.00 | 46 | 1017.6 |
| 20260507140603 | 76 | 232 | 5.0 | 13.0 | 0.00 | 0.00 | 0.00 | 45 | 1017.6 |
| 20260507140516 | 75 | 237 | 6.0 | 13.0 | 0.00 | 0.00 | 0.00 | 45 | 1017.6 |
| 20260507140403 | 75 | 234 | 6.0 | 13.0 | 0.00 | 0.00 | 0.00 | 45 | 1017.6 |
| 20260507140316 | 75 | 232 | 6.0 | 13.0 | 0.00 | 0.00 | 0.00 | 43 | 1017.7 |
| 20260507140204 | 75 | 233 | 6.0 | 13.0 | 0.00 | 0.00 | 0.00 | 42 | 1017.7 |
| 20260507140116 | 75 | 234 | 6.0 | 13.0 | 0.00 | 0.00 | 0.00 | 41 | 1017.7 |
| 20260507140004 | 75 | 236 | 6.0 | 13.0 | 0.00 | 0.00 | 0.00 | 42 | 1017.7 |
| 20260507135916 | 75 | 235 | 6.0 | 13.0 | 0.00 | 0.00 | 0.00 | 43 | 1017.8 |
| 20260507135804 | 75 | 230 | 7.0 | 13.0 | 0.00 | 0.00 | 0.00 | 45 | 1017.8 |
| 20260507135716 | 75 | 230 | 7.0 | 13.0 | 0.00 | 0.00 | 0.00 | 44 | 1017.8 |
| 20260507135604 | 75 | 225 | 7.0 | 13.0 | 0.00 | 0.00 | 0.00 | 43 | 1017.8 |
| 20260507135516 | 76 | 218 | 7.0 | 13.0 | 0.00 | 0.00 | 0.00 | 42 | 1017.8 |
| 20260507135403 | 76 | 217 | 7.0 | 13.0 | 0.00 | 0.00 | 0.00 | 42 | 1017.8 |
| 20260507135315 | 76 | 219 | 7.0 | 13.0 | 0.00 | 0.00 | 0.00 | 42 | 1017.8 |
| 20260507135203 | 75 | 220 | 7.0 | 13.0 | 0.00 | 0.00 | 0.00 | 42 | 1017.8 |
| 20260507135116 | 75 | 221 | 7.0 | 13.0 | 0.00 | 0.00 | 0.00 | 41 | 1017.7 |
| 20260507135003 | 75 | 221 | 7.0 | 15.0 | 0.00 | 0.00 | 0.00 | 41 | 1017.7 |
| 20260507134916 | 75 | 222 | 7.0 | 15.0 | 0.00 | 0.00 | 0.00 | 43 | 1017.6 |
| 20260507134803 | 75 | 222 | 7.0 | 15.0 | 0.00 | 0.00 | 0.00 | 42 | 1017.6 |
| 20260507134716 | 75 | 222 | 7.0 | 15.0 | 0.00 | 0.00 | 0.00 | 42 | 1017.6 |
| 20260507134604 | 75 | 223 | 7.0 | 15.0 | 0.00 | 0.00 | 0.00 | 38 | 1017.7 |
| 20260507134516 | 75 | 226 | 7.0 | 15.0 | 0.00 | 0.00 | 0.00 | 37 | 1017.7 |
| 20260507134404 | 76 | 225 | 6.0 | 15.0 | 0.00 | 0.00 | 0.00 | 37 | 1017.8 |
| 20260507134316 | 76 | 225 | 6.0 | 15.0 | 0.00 | 0.00 | 0.00 | 36 | 1017.8 |
| 20260507134203 | 76 | 224 | 6.0 | 15.0 | 0.00 | 0.00 | 0.00 | 35 | 1017.8 |
| 20260507134115 | 76 | 225 | 6.0 | 15.0 | 0.00 | 0.00 | 0.00 | 35 | 1017.8 |
| 20260507134003 | 76 | 228 | 6.0 | 15.0 | 0.00 | 0.00 | 0.00 | 36 | 1017.8 |
| 20260507133915 | 76 | 229 | 6.0 | 15.0 | 0.00 | 0.00 | 0.00 | 37 | 1017.8 |
| 20260507133804 | 76 | 229 | 6.0 | 15.0 | 0.00 | 0.00 | 0.00 | 36 | 1017.8 |
| 20260507133716 | 76 | 229 | 6.0 | 18.0 | 0.00 | 0.00 | 0.00 | 36 | 1017.7 |
| 20260507133603 | 76 | 232 | 6.0 | 18.0 | 0.00 | 0.00 | 0.00 | 37 | 1017.8 |
| 20260507133515 | 76 | 232 | 6.0 | 18.0 | 0.00 | 0.00 | 0.00 | 37 | 1017.8 |
| 20260507133404 | 76 | 231 | 6.0 | 18.0 | 0.00 | 0.00 | 0.00 | 38 | 1017.8 |
| 20260507133316 | 76 | 228 | 6.0 | 18.0 | 0.00 | 0.00 | 0.00 | 39 | 1017.8 |
| 20260507133203 | 76 | 227 | 6.0 | 18.0 | 0.00 | 0.00 | 0.00 | 39 | 1017.8 |
| 20260507133116 | 76 | 225 | 6.0 | 18.0 | 0.00 | 0.00 | 0.00 | 40 | 1017.8 |
| 20260507133003 | 76 | 223 | 6.0 | 18.0 | 0.00 | 0.00 | 0.00 | 38 | 1017.7 |
| 20260507132915 | 76 | 224 | 6.0 | 18.0 | 0.00 | 0.00 | 0.00 | 38 | 1017.7 |
| 20260507132803 | 76 | 226 | 6.0 | 18.0 | 0.00 | 0.00 | 0.00 | 37 | 1017.7 |
| 20260507132715 | 76 | 226 | 6.0 | 13.0 | 0.00 | 0.00 | 0.00 | 37 | 1017.7 |
| 20260507132604 | 76 | 222 | 6.0 | 13.0 | 0.00 | 0.00 | 0.00 | 36 | 1017.6 |
| 20260507132516 | 76 | 220 | 6.0 | 13.0 | 0.00 | 0.00 | 0.00 | 34 | 1017.7 |
| 20260507132403 | 76 | 223 | 6.0 | 13.0 | 0.00 | 0.00 | 0.00 | 33 | 1017.7 |
| 20260507132315 | 76 | 227 | 6.0 | 15.0 | 0.00 | 0.00 | 0.00 | 33 | 1017.6 |
| 20260507132203 | 76 | 227 | 6.0 | 15.0 | 0.00 | 0.00 | 0.00 | 34 | 1017.6 |
| 20260507132116 | 76 | 230 | 6.0 | 15.0 | 0.00 | 0.00 | 0.00 | 35 | 1017.6 |
| 20260507132004 | 76 | 235 | 6.0 | 15.0 | 0.00 | 0.00 | 0.00 | 35 | 1017.5 |
| 20260507131915 | 76 | 234 | 6.0 | 15.0 | 0.00 | 0.00 | 0.00 | 36 | 1017.6 |
| 20260507131803 | 76 | 232 | 6.0 | 15.0 | 0.00 | 0.00 | 0.00 | 35 | 1017.6 |
| 20260507131716 | 77 | 234 | 6.0 | 15.0 | 0.00 | 0.00 | 0.00 | 37 | 1017.7 |
| 20260507131604 | 76 | 233 | 6.0 | 15.0 | 0.00 | 0.00 | 0.00 | 37 | 1017.7 |
| 20260507131516 | 76 | 235 | 6.0 | 15.0 | 0.00 | 0.00 | 0.00 | 36 | 1017.7 |
| 20260507131403 | 76 | 233 | 6.0 | 15.0 | 0.00 | 0.00 | 0.00 | 38 | 1017.7 |
| 20260507131315 | 76 | 232 | 6.0 | 15.0 | 0.00 | 0.00 | 0.00 | 38 | 1017.7 |
| 20260507131203 | 77 | 233 | 6.0 | 15.0 | 0.00 | 0.00 | 0.00 | 37 | 1017.7 |
| 20260507131116 | 77 | 228 | 6.0 | 15.0 | 0.00 | 0.00 | 0.00 | 36 | 1017.7 |
| 20260507131004 | 78 | 223 | 6.0 | 15.0 | 0.00 | 0.00 | 0.00 | 36 | 1017.7 |
| 20260507130916 | 78 | 223 | 6.0 | 15.0 | 0.00 | 0.00 | 0.00 | 36 | 1017.6 |
| 20260507130803 | 77 | 225 | 6.0 | 15.0 | 0.00 | 0.00 | 0.00 | 34 | 1017.6 |
| 20260507130716 | 77 | 223 | 6.0 | 15.0 | 0.00 | 0.00 | 0.00 | 34 | 1017.6 |
| 20260507130603 | 77 | 226 | 6.0 | 15.0 | 0.00 | 0.00 | 0.00 | 32 | 1017.6 |
| 20260507130516 | 77 | 228 | 6.0 | 15.0 | 0.00 | 0.00 | 0.00 | 33 | 1017.6 |
| 20260507130403 | 77 | 229 | 6.0 | 15.0 | 0.00 | 0.00 | 0.00 | 34 | 1017.7 |
| 20260507130315 | 77 | 228 | 6.0 | 15.0 | 0.00 | 0.00 | 0.00 | 33 | 1017.8 |
| 20260507130203 | 77 | 226 | 6.0 | 15.0 | 0.00 | 0.00 | 0.00 | 31 | 1017.9 |
| 20260507130116 | 77 | 226 | 6.0 | 17.0 | 0.00 | 0.00 | 0.00 | 32 | 1017.9 |
| 20260507130004 | 77 | 226 | 6.0 | 17.0 | 0.00 | 0.00 | 0.00 | 34 | 1017.9 |
| 20260507125915 | 77 | 226 | 6.0 | 17.0 | 0.00 | 0.00 | 0.00 | 34 | 1018.0 |
| 20260507125804 | 77 | 226 | 6.0 | 17.0 | 0.00 | 0.00 | 0.00 | 35 | 1018.0 |
| 20260507125716 | 77 | 228 | 6.0 | 17.0 | 0.00 | 0.00 | 0.00 | 37 | 1018.0 |
| 20260507125603 | 77 | 225 | 7.0 | 17.0 | 0.00 | 0.00 | 0.00 | 37 | 1018.0 |
| 20260507125515 | 77 | 223 | 7.0 | 17.0 | 0.00 | 0.00 | 0.00 | 40 | 1018.1 |
| 20260507125403 | 77 | 222 | 7.0 | 17.0 | 0.00 | 0.00 | 0.00 | 37 | 1018.1 |
| 20260507125315 | 77 | 223 | 7.0 | 17.0 | 0.00 | 0.00 | 0.00 | 38 | 1018.2 |
| 20260507125203 | 77 | 225 | 7.0 | 17.0 | 0.00 | 0.00 | 0.00 | 38 | 1018.2 |
| 20260507125115 | 77 | 226 | 7.0 | 17.0 | 0.00 | 0.00 | 0.00 | 39 | 1018.2 |
| 20260507125004 | 76 | 225 | 7.0 | 15.0 | 0.00 | 0.00 | 0.00 | 39 | 1018.2 |
| 20260507124916 | 76 | 224 | 7.0 | 15.0 | 0.00 | 0.00 | 0.00 | 40 | 1018.1 |
| 20260507124804 | 76 | 224 | 7.0 | 18.0 | 0.00 | 0.00 | 0.00 | 41 | 1018.1 |
| 20260507124716 | 76 | 223 | 8.0 | 18.0 | 0.00 | 0.00 | 0.00 | 39 | 1018.0 |
| 20260507124604 | 76 | 223 | 8.0 | 18.0 | 0.00 | 0.00 | 0.00 | 40 | 1017.9 |
| 20260507124516 | 76 | 223 | 8.0 | 18.0 | 0.00 | 0.00 | 0.00 | 42 | 1017.9 |
| 20260507124403 | 76 | 223 | 8.0 | 18.0 | 0.00 | 0.00 | 0.00 | 42 | 1018.0 |
| 20260507124315 | 76 | 222 | 8.0 | 18.0 | 0.00 | 0.00 | 0.00 | 42 | 1018.0 |
| 20260507124204 | 76 | 222 | 8.0 | 18.0 | 0.00 | 0.00 | 0.00 | 42 | 1018.0 |
| 20260507124115 | 76 | 221 | 8.0 | 18.0 | 0.00 | 0.00 | 0.00 | 42 | 1018.1 |
| 20260507124003 | 77 | 221 | 9.0 | 18.0 | 0.00 | 0.00 | 0.00 | 42 | 1018.1 |
| 20260507123916 | 77 | 220 | 9.0 | 18.0 | 0.00 | 0.00 | 0.00 | 43 | 1018.2 |
| 20260507123804 | 76 | 220 | 9.0 | 18.0 | 0.00 | 0.00 | 0.00 | 43 | 1018.1 |
| 20260507123716 | 76 | 219 | 9.0 | 18.0 | 0.00 | 0.00 | 0.00 | 42 | 1018.2 |
| 20260507123604 | 76 | 220 | 9.0 | 18.0 | 0.00 | 0.00 | 0.00 | 43 | 1018.2 |
| 20260507123516 | 76 | 223 | 9.0 | 18.0 | 0.00 | 0.00 | 0.00 | 42 | 1018.2 |
| 20260507123404 | 76 | 222 | 10.0 | 18.0 | 0.00 | 0.00 | 0.00 | 44 | 1018.2 |
| 20260507123315 | 76 | 221 | 10.0 | 18.0 | 0.00 | 0.00 | 0.00 | 43 | 1018.2 |
| 20260507123203 | 76 | 221 | 10.0 | 18.0 | 0.00 | 0.00 | 0.00 | 43 | 1018.1 |
| 20260507123115 | 76 | 220 | 10.0 | 18.0 | 0.00 | 0.00 | 0.00 | 42 | 1018.2 |
| 20260507123003 | 76 | 218 | 10.0 | 18.0 | 0.00 | 0.00 | 0.00 | 44 | 1018.2 |
| 20260507122915 | 76 | 219 | 10.0 | 18.0 | 0.00 | 0.00 | 0.00 | 43 | 1018.2 |
| 20260507122803 | 77 | 219 | 10.0 | 18.0 | 0.00 | 0.00 | 0.00 | 43 | 1018.2 |
| 20260507122715 | 77 | 221 | 10.0 | 18.0 | 0.00 | 0.00 | 0.00 | 44 | 1018.2 |
| 20260507122603 | 77 | 220 | 10.0 | 18.0 | 0.00 | 0.00 | 0.00 | 44 | 1018.2 |
| 20260507122516 | 77 | 218 | 10.0 | 18.0 | 0.00 | 0.00 | 0.00 | 44 | 1018.3 |
| 20260507122404 | 77 | 220 | 10.0 | 18.0 | 0.00 | 0.00 | 0.00 | 46 | 1018.3 |
| 20260507122315 | 77 | 222 | 10.0 | 18.0 | 0.00 | 0.00 | 0.00 | 45 | 1018.3 |
| 20260507122203 | 76 | 224 | 9.0 | 20.0 | 0.00 | 0.00 | 0.00 | 44 | 1018.3 |
| 20260507122116 | 76 | 226 | 9.0 | 20.0 | 0.00 | 0.00 | 0.00 | 44 | 1018.3 |
| 20260507122004 | 76 | 228 | 9.0 | 20.0 | 0.00 | 0.00 | 0.00 | 42 | 1018.3 |
| 20260507121916 | 76 | 229 | 9.0 | 20.0 | 0.00 | 0.00 | 0.00 | 39 | 1018.3 |
| 20260507121804 | 76 | 229 | 9.0 | 20.0 | 0.00 | 0.00 | 0.00 | 40 | 1018.3 |
| 20260507121716 | 76 | 227 | 9.0 | 20.0 | 0.00 | 0.00 | 0.00 | 42 | 1018.3 |
| 20260507121604 | 76 | 229 | 9.0 | 20.0 | 0.00 | 0.00 | 0.00 | 42 | 1018.3 |
| 20260507121515 | 76 | 230 | 9.0 | 20.0 | 0.00 | 0.00 | 0.00 | 41 | 1018.3 |
| 20260507121403 | 77 | 232 | 10.0 | 20.0 | 0.00 | 0.00 | 0.00 | 41 | 1018.3 |
| 20260507121316 | 77 | 232 | 10.0 | 20.0 | 0.00 | 0.00 | 0.00 | 40 | 1018.3 |
| 20260507121204 | 77 | 232 | 10.0 | 20.0 | 0.00 | 0.00 | 0.00 | 42 | 1018.3 |
| 20260507121116 | 77 | 233 | 10.0 | 20.0 | 0.00 | 0.00 | 0.00 | 43 | 1018.3 |
| 20260507121004 | 77 | 231 | 10.0 | 20.0 | 0.00 | 0.00 | 0.00 | 44 | 1018.3 |
| 20260507120915 | 77 | 230 | 10.0 | 20.0 | 0.00 | 0.00 | 0.00 | 43 | 1018.2 |
| 20260507120803 | 77 | 228 | 10.0 | 20.0 | 0.00 | 0.00 | 0.00 | 41 | 1018.2 |
| 20260507120716 | 76 | 228 | 10.0 | 20.0 | 0.00 | 0.00 | 0.00 | 40 | 1018.3 |
| 20260507120603 | 76 | 227 | 10.0 | 22.0 | 0.00 | 0.00 | 0.00 | 39 | 1018.2 |
| 20260507120515 | 76 | 225 | 10.0 | 22.0 | 0.00 | 0.00 | 0.00 | 38 | 1018.3 |
| 20260507120404 | 77 | 222 | 10.0 | 22.0 | 0.00 | 0.00 | 0.00 | 39 | 1018.3 |
| 20260507120316 | 77 | 221 | 10.0 | 22.0 | 0.00 | 0.00 | 0.00 | 40 | 1018.3 |
| 20260507120203 | 77 | 222 | 10.0 | 22.0 | 0.00 | 0.00 | 0.00 | 41 | 1018.2 |
| 20260507120115 | 77 | 222 | 10.0 | 22.0 | 0.00 | 0.00 | 0.00 | 41 | 1018.3 |
| 20260507120004 | 77 | 222 | 10.0 | 22.0 | 0.00 | 0.00 | 0.00 | 40 | 1018.3 |
| 20260507115915 | 77 | 224 | 10.0 | 22.0 | 0.00 | 0.00 | 0.00 | 40 | 1018.2 |
| 20260507115804 | 77 | 226 | 10.0 | 22.0 | 0.00 | 0.00 | 0.00 | 39 | 1018.2 |
| 20260507115715 | 77 | 225 | 10.0 | 22.0 | 0.00 | 0.00 | 0.00 | 37 | 1018.2 |
| 20260507115603 | 77 | 226 | 10.0 | 20.0 | 0.00 | 0.00 | 0.00 | 37 | 1018.2 |
| 20260507115516 | 77 | 225 | 10.0 | 18.0 | 0.00 | 0.00 | 0.00 | 37 | 1018.1 |
| 20260507115403 | 77 | 225 | 10.0 | 18.0 | 0.00 | 0.00 | 0.00 | 38 | 1018.1 |
| 20260507115317 | 77 | 223 | 10.0 | 18.0 | 0.00 | 0.00 | 0.00 | 37 | 1018.1 |
| 20260507115203 | 78 | 222 | 10.0 | 18.0 | 0.00 | 0.00 | 0.00 | 39 | 1018.1 |
| 20260507115116 | 77 | 223 | 10.0 | 18.0 | 0.00 | 0.00 | 0.00 | 37 | 1018.0 |
| 20260507115004 | 78 | 226 | 10.0 | 18.0 | 0.00 | 0.00 | 0.00 | 38 | 1018.1 |
| 20260507114916 | 78 | 226 | 10.0 | 18.0 | 0.00 | 0.00 | 0.00 | 38 | 1018.0 |
| 20260507114804 | 78 | 227 | 10.0 | 18.0 | 0.00 | 0.00 | 0.00 | 36 | 1018.0 |
| 20260507114716 | 78 | 229 | 10.0 | 18.0 | 0.00 | 0.00 | 0.00 | 35 | 1018.0 |
| 20260507114603 | 78 | 228 | 10.0 | 18.0 | 0.00 | 0.00 | 0.00 | 33 | 1017.9 |
| 20260507114516 | 78 | 228 | 10.0 | 18.0 | 0.00 | 0.00 | 0.00 | 32 | 1017.9 |
| 20260507114404 | 78 | 230 | 10.0 | 20.0 | 0.00 | 0.00 | 0.00 | 35 | 1017.9 |
| 20260507114316 | 78 | 231 | 10.0 | 20.0 | 0.00 | 0.00 | 0.00 | 34 | 1017.9 |
| 20260507114203 | 78 | 230 | 10.0 | 20.0 | 0.00 | 0.00 | 0.00 | 33 | 1017.9 |
| 20260507114116 | 78 | 230 | 10.0 | 20.0 | 0.00 | 0.00 | 0.00 | 33 | 1017.8 |
| 20260507114003 | 78 | 227 | 10.0 | 20.0 | 0.00 | 0.00 | 0.00 | 33 | 1017.8 |
| 20260507113915 | 78 | 227 | 10.0 | 20.0 | 0.00 | 0.00 | 0.00 | 34 | 1017.9 |
| 20260507113804 | 78 | 227 | 10.0 | 20.0 | 0.00 | 0.00 | 0.00 | 32 | 1017.9 |
| 20260507113716 | 78 | 224 | 10.0 | 20.0 | 0.00 | 0.00 | 0.00 | 30 | 1017.9 |
| 20260507113603 | 78 | 226 | 9.0 | 20.0 | 0.00 | 0.00 | 0.00 | 30 | 1017.9 |
| 20260507113516 | 78 | 226 | 9.0 | 20.0 | 0.00 | 0.00 | 0.00 | 28 | 1017.9 |
| 20260507113403 | 78 | 225 | 9.0 | 18.0 | 0.00 | 0.00 | 0.00 | 27 | 1017.9 |
| 20260507113316 | 78 | 222 | 9.0 | 18.0 | 0.00 | 0.00 | 0.00 | 28 | 1017.9 |
| 20260507113203 | 78 | 221 | 9.0 | 18.0 | 0.00 | 0.00 | 0.00 | 28 | 1017.9 |
| 20260507113116 | 79 | 220 | 8.0 | 18.0 | 0.00 | 0.00 | 0.00 | 26 | 1017.9 |
| 20260507113004 | 79 | 222 | 8.0 | 18.0 | 0.00 | 0.00 | 0.00 | 27 | 1017.9 |
| 20260507112916 | 79 | 218 | 8.0 | 18.0 | 0.00 | 0.00 | 0.00 | 26 | 1017.9 |
| 20260507112804 | 79 | 217 | 8.0 | 18.0 | 0.00 | 0.00 | 0.00 | 25 | 1017.9 |
| 20260507112716 | 80 | 220 | 8.0 | 18.0 | 0.00 | 0.00 | 0.00 | 26 | 1017.9 |
| 20260507112604 | 80 | 221 | 8.0 | 18.0 | 0.00 | 0.00 | 0.00 | 28 | 1017.9 |
| 20260507112516 | 80 | 221 | 8.0 | 18.0 | 0.00 | 0.00 | 0.00 | 29 | 1017.9 |
| 20260507112404 | 79 | 221 | 8.0 | 18.0 | 0.00 | 0.00 | 0.00 | 30 | 1017.9 |
| 20260507112317 | 79 | 226 | 8.0 | 17.0 | 0.00 | 0.00 | 0.00 | 29 | 1017.8 |
| 20260507112203 | 79 | 229 | 8.0 | 17.0 | 0.00 | 0.00 | 0.00 | 28 | 1017.9 |
| 20260507112116 | 79 | 231 | 8.0 | 17.0 | 0.00 | 0.00 | 0.00 | 29 | 1017.9 |
| 20260507112004 | 79 | 232 | 8.0 | 17.0 | 0.00 | 0.00 | 0.00 | 33 | 1017.9 |
| 20260507111915 | 78 | 237 | 9.0 | 17.0 | 0.00 | 0.00 | 0.00 | 32 | 1017.9 |
| 20260507111803 | 78 | 238 | 9.0 | 17.0 | 0.00 | 0.00 | 0.00 | 29 | 1017.9 |
| 20260507111716 | 78 | 236 | 9.0 | 17.0 | 0.00 | 0.00 | 0.00 | 31 | 1017.9 |
| 20260507111603 | 78 | 234 | 9.0 | 17.0 | 0.00 | 0.00 | 0.00 | 31 | 1017.8 |
| 20260507111516 | 78 | 233 | 10.0 | 18.0 | 0.00 | 0.00 | 0.00 | 32 | 1017.9 |
| 20260507111404 | 78 | 232 | 10.0 | 18.0 | 0.00 | 0.00 | 0.00 | 27 | 1017.8 |
| 20260507111316 | 78 | 228 | 10.0 | 18.0 | 0.00 | 0.00 | 0.00 | 27 | 1017.8 |
| 20260507111204 | 78 | 226 | 10.0 | 18.0 | 0.00 | 0.00 | 0.00 | 27 | 1017.8 |
| 20260507111117 | 78 | 224 | 10.0 | 18.0 | 0.00 | 0.00 | 0.00 | 27 | 1017.8 |
| 20260507111004 | 78 | 219 | 10.0 | 18.0 | 0.00 | 0.00 | 0.00 | 29 | 1017.8 |
| 20260507110916 | 78 | 216 | 10.0 | 24.0 | 0.00 | 0.00 | 0.00 | 29 | 1017.8 |
| 20260507110804 | 78 | 213 | 10.0 | 24.0 | 0.00 | 0.00 | 0.00 | 29 | 1017.8 |
| 20260507110715 | 78 | 213 | 10.0 | 24.0 | 0.00 | 0.00 | 0.00 | 28 | 1017.8 |
| 20260507110604 | 78 | 212 | 10.0 | 24.0 | 0.00 | 0.00 | 0.00 | 31 | 1017.8 |
| 20260507110515 | 78 | 212 | 10.0 | 24.0 | 0.00 | 0.00 | 0.00 | 30 | 1017.7 |
| 20260507110404 | 78 | 214 | 10.0 | 24.0 | 0.00 | 0.00 | 0.00 | 31 | 1017.8 |
| 20260507110316 | 78 | 215 | 10.0 | 24.0 | 0.00 | 0.00 | 0.00 | 30 | 1017.7 |
| 20260507110204 | 78 | 215 | 10.0 | 24.0 | 0.00 | 0.00 | 0.00 | 33 | 1017.7 |
| 20260507110116 | 78 | 214 | 10.0 | 24.0 | 0.00 | 0.00 | 0.00 | 34 | 1017.7 |
| 20260507110005 | 78 | 217 | 10.0 | 24.0 | 0.00 | 0.00 | 0.00 | 33 | 1017.8 |
| 20260507105915 | 78 | 220 | 10.0 | 20.0 | 0.00 | 0.00 | 0.00 | 36 | 1017.8 |
| 20260507105804 | 78 | 222 | 10.0 | 18.0 | 0.00 | 0.00 | 0.00 | 36 | 1017.8 |
| 20260507105715 | 78 | 222 | 10.0 | 20.0 | 0.00 | 0.00 | 0.00 | 35 | 1017.8 |
| 20260507105604 | 78 | 225 | 10.0 | 20.0 | 0.00 | 0.00 | 0.00 | 32 | 1017.9 |
| 20260507105516 | 78 | 226 | 9.0 | 20.0 | 0.00 | 0.00 | 0.00 | 35 | 1017.9 |
| 20260507105403 | 78 | 229 | 9.0 | 20.0 | 0.00 | 0.00 | 0.00 | 36 | 1018.0 |
| 20260507105315 | 78 | 233 | 9.0 | 20.0 | 0.00 | 0.00 | 0.00 | 35 | 1018.0 |
| 20260507105204 | 78 | 237 | 8.0 | 20.0 | 0.00 | 0.00 | 0.00 | 31 | 1018.0 |
| 20260507105116 | 78 | 237 | 8.0 | 20.0 | 0.00 | 0.00 | 0.00 | 31 | 1018.0 |
| 20260507105004 | 78 | 237 | 8.0 | 20.0 | 0.00 | 0.00 | 0.00 | 33 | 1018.0 |
| 20260507104915 | 78 | 239 | 7.0 | 20.0 | 0.00 | 0.00 | 0.00 | 34 | 1018.0 |
| 20260507104804 | 78 | 243 | 7.0 | 20.0 | 0.00 | 0.00 | 0.00 | 35 | 1017.9 |
| 20260507104716 | 78 | 244 | 7.0 | 20.0 | 0.00 | 0.00 | 0.00 | 36 | 1017.9 |
| 20260507104604 | 78 | 245 | 7.0 | 20.0 | 0.00 | 0.00 | 0.00 | 35 | 1017.9 |
| 20260507104516 | 78 | 247 | 7.0 | 18.0 | 0.00 | 0.00 | 0.00 | 35 | 1017.8 |
| 20260507104404 | 78 | 241 | 7.0 | 18.0 | 0.00 | 0.00 | 0.00 | 36 | 1017.8 |
| 20260507104315 | 78 | 235 | 7.0 | 17.0 | 0.00 | 0.00 | 0.00 | 35 | 1017.8 |
| 20260507104204 | 78 | 230 | 7.0 | 17.0 | 0.00 | 0.00 | 0.00 | 36 | 1017.8 |
| 20260507104116 | 78 | 229 | 7.0 | 17.0 | 0.00 | 0.00 | 0.00 | 33 | 1017.8 |
| 20260507104004 | 78 | 226 | 7.0 | 17.0 | 0.00 | 0.00 | 0.00 | 33 | 1017.8 |
| 20260507103915 | 79 | 219 | 7.0 | 17.0 | 0.00 | 0.00 | 0.00 | 34 | 1017.8 |
| 20260507103804 | 79 | 213 | 7.0 | 17.0 | 0.00 | 0.00 | 0.00 | 33 | 1017.8 |
| 20260507103715 | 79 | 209 | 7.0 | 17.0 | 0.00 | 0.00 | 0.00 | 37 | 1017.7 |
| 20260507103603 | 79 | 204 | 7.0 | 17.0 | 0.00 | 0.00 | 0.00 | 37 | 1017.7 |
| 20260507103515 | 78 | 198 | 7.0 | 17.0 | 0.00 | 0.00 | 0.00 | 35 | 1017.7 |
| 20260507103404 | 78 | 198 | 7.0 | 17.0 | 0.00 | 0.00 | 0.00 | 34 | 1017.7 |
| 20260507103315 | 78 | 199 | 7.0 | 17.0 | 0.00 | 0.00 | 0.00 | 34 | 1017.7 |
| 20260507103204 | 78 | 199 | 7.0 | 17.0 | 0.00 | 0.00 | 0.00 | 34 | 1017.7 |
| 20260507103116 | 78 | 200 | 7.0 | 17.0 | 0.00 | 0.00 | 0.00 | 33 | 1017.7 |
| 20260507103003 | 78 | 202 | 7.0 | 18.0 | 0.00 | 0.00 | 0.00 | 34 | 1017.7 |
| 20260507102916 | 78 | 204 | 7.0 | 18.0 | 0.00 | 0.00 | 0.00 | 34 | 1017.7 |
| 20260507102804 | 78 | 206 | 7.0 | 18.0 | 0.00 | 0.00 | 0.00 | 35 | 1017.7 |
| 20260507102715 | 78 | 208 | 7.0 | 18.0 | 0.00 | 0.00 | 0.00 | 35 | 1017.7 |
| 20260507102604 | 78 | 208 | 7.0 | 20.0 | 0.00 | 0.00 | 0.00 | 35 | 1017.6 |
| 20260507102516 | 77 | 211 | 7.0 | 20.0 | 0.00 | 0.00 | 0.00 | 35 | 1017.6 |
| 20260507102403 | 77 | 210 | 7.0 | 20.0 | 0.00 | 0.00 | 0.00 | 34 | 1017.7 |
| 20260507102316 | 77 | 210 | 8.0 | 20.0 | 0.00 | 0.00 | 0.00 | 35 | 1017.7 |
| 20260507102204 | 77 | 210 | 8.0 | 20.0 | 0.00 | 0.00 | 0.00 | 36 | 1017.7 |
| 20260507102116 | 77 | 208 | 8.0 | 20.0 | 0.00 | 0.00 | 0.00 | 34 | 1017.8 |
| 20260507102006 | 77 | 210 | 8.0 | 20.0 | 0.00 | 0.00 | 0.00 | 33 | 1017.8 |
| 20260507101916 | 77 | 208 | 8.0 | 20.0 | 0.00 | 0.00 | 0.00 | 36 | 1017.8 |
| 20260507101804 | 77 | 208 | 8.0 | 20.0 | 0.00 | 0.00 | 0.00 | 36 | 1017.8 |
| 20260507101716 | 77 | 210 | 8.0 | 20.0 | 0.00 | 0.00 | 0.00 | 34 | 1017.9 |
| 20260507101604 | 77 | 211 | 8.0 | 18.0 | 0.00 | 0.00 | 0.00 | 36 | 1017.9 |
| 20260507101517 | 77 | 213 | 8.0 | 18.0 | 0.00 | 0.00 | 0.00 | 36 | 1017.9 |
| 20260507101403 | 77 | 215 | 8.0 | 18.0 | 0.00 | 0.00 | 0.00 | 35 | 1017.9 |
| 20260507101316 | 77 | 215 | 8.0 | 18.0 | 0.00 | 0.00 | 0.00 | 34 | 1017.9 |
| 20260507101203 | 76 | 216 | 8.0 | 18.0 | 0.00 | 0.00 | 0.00 | 35 | 1017.9 |
| 20260507101116 | 76 | 218 | 8.0 | 18.0 | 0.00 | 0.00 | 0.00 | 36 | 1018.0 |
| 20260507101004 | 76 | 215 | 8.0 | 18.0 | 0.00 | 0.00 | 0.00 | 38 | 1018.0 |
| 20260507100915 | 76 | 217 | 9.0 | 18.0 | 0.00 | 0.00 | 0.00 | 41 | 1018.0 |
| 20260507100804 | 76 | 215 | 9.0 | 18.0 | 0.00 | 0.00 | 0.00 | 40 | 1018.0 |
| 20260507100715 | 76 | 211 | 9.0 | 18.0 | 0.00 | 0.00 | 0.00 | 39 | 1018.0 |
| 20260507100603 | 76 | 210 | 9.0 | 20.0 | 0.00 | 0.00 | 0.00 | 37 | 1018.1 |
| 20260507100516 | 77 | 208 | 9.0 | 20.0 | 0.00 | 0.00 | 0.00 | 35 | 1018.1 |
| 20260507100404 | 77 | 207 | 9.0 | 20.0 | 0.00 | 0.00 | 0.00 | 36 | 1018.1 |
| 20260507100315 | 77 | 205 | 9.0 | 20.0 | 0.00 | 0.00 | 0.00 | 37 | 1018.1 |
| 20260507100204 | 77 | 204 | 9.0 | 20.0 | 0.00 | 0.00 | 0.00 | 37 | 1018.1 |
| 20260507100116 | 77 | 203 | 9.0 | 20.0 | 0.00 | 0.00 | 0.00 | 34 | 1018.1 |
| 20260507100005 | 77 | 206 | 9.0 | 20.0 | 0.00 | 0.00 | 0.00 | 33 | 1018.1 |
| 20260507095915 | 77 | 206 | 9.0 | 20.0 | 0.00 | 0.00 | 0.00 | 35 | 1018.2 |
| 20260507095804 | 77 | 204 | 9.0 | 20.0 | 0.00 | 0.00 | 0.00 | 32 | 1018.2 |
| 20260507095716 | 77 | 206 | 9.0 | 20.0 | 0.00 | 0.00 | 0.00 | 31 | 1018.2 |
| 20260507095603 | 77 | 209 | 9.0 | 20.0 | 0.00 | 0.00 | 0.00 | 39 | 1018.2 |
| 20260507095516 | 77 | 211 | 9.0 | 18.0 | 0.00 | 0.00 | 0.00 | 40 | 1018.2 |
| 20260507095403 | 77 | 211 | 9.0 | 18.0 | 0.00 | 0.00 | 0.00 | 37 | 1018.3 |
| 20260507095316 | 77 | 211 | 9.0 | 18.0 | 0.00 | 0.00 | 0.00 | 38 | 1018.3 |
| 20260507095204 | 77 | 214 | 9.0 | 18.0 | 0.00 | 0.00 | 0.00 | 39 | 1018.3 |
| 20260507095116 | 76 | 213 | 9.0 | 18.0 | 0.00 | 0.00 | 0.00 | 37 | 1018.3 |
| 20260507095004 | 76 | 210 | 9.0 | 18.0 | 0.00 | 0.00 | 0.00 | 35 | 1018.3 |
| 20260507094916 | 76 | 211 | 9.0 | 18.0 | 0.00 | 0.00 | 0.00 | 35 | 1018.3 |
| 20260507094804 | 76 | 214 | 9.0 | 18.0 | 0.00 | 0.00 | 0.00 | 36 | 1018.4 |
| 20260507094716 | 76 | 215 | 9.0 | 18.0 | 0.00 | 0.00 | 0.00 | 39 | 1018.3 |
| 20260507094604 | 76 | 214 | 9.0 | 18.0 | 0.00 | 0.00 | 0.00 | 39 | 1018.3 |
| 20260507094516 | 76 | 215 | 9.0 | 18.0 | 0.00 | 0.00 | 0.00 | 40 | 1018.3 |
| 20260507094403 | 76 | 216 | 9.0 | 18.0 | 0.00 | 0.00 | 0.00 | 40 | 1018.3 |
| 20260507094316 | 76 | 219 | 9.0 | 18.0 | 0.00 | 0.00 | 0.00 | 40 | 1018.3 |
| 20260507094204 | 76 | 218 | 9.0 | 18.0 | 0.00 | 0.00 | 0.00 | 38 | 1018.3 |
| 20260507094116 | 76 | 216 | 9.0 | 18.0 | 0.00 | 0.00 | 0.00 | 37 | 1018.3 |
| 20260507094003 | 76 | 215 | 9.0 | 18.0 | 0.00 | 0.00 | 0.00 | 38 | 1018.4 |
| 20260507093915 | 76 | 214 | 9.0 | 20.0 | 0.00 | 0.00 | 0.00 | 39 | 1018.3 |
| 20260507093804 | 76 | 214 | 10.0 | 20.0 | 0.00 | 0.00 | 0.00 | 38 | 1018.3 |
| 20260507093715 | 76 | 211 | 10.0 | 20.0 | 0.00 | 0.00 | 0.00 | 40 | 1018.4 |
| 20260507093603 | 76 | 208 | 10.0 | 20.0 | 0.00 | 0.00 | 0.00 | 41 | 1018.4 |
| 20260507093516 | 76 | 203 | 10.0 | 20.0 | 0.00 | 0.00 | 0.00 | 41 | 1018.3 |
| 20260507093403 | 76 | 201 | 10.0 | 20.0 | 0.00 | 0.00 | 0.00 | 43 | 1018.3 |
| 20260507093315 | 76 | 198 | 10.0 | 20.0 | 0.00 | 0.00 | 0.00 | 42 | 1018.3 |
| 20260507093204 | 76 | 195 | 10.0 | 26.0 | 0.00 | 0.00 | 0.00 | 40 | 1018.3 |
| 20260507093116 | 75 | 194 | 10.0 | 26.0 | 0.00 | 0.00 | 0.00 | 40 | 1018.3 |
| 20260507093003 | 75 | 197 | 10.0 | 26.0 | 0.00 | 0.00 | 0.00 | 43 | 1018.3 |
| 20260507092916 | 75 | 198 | 10.0 | 26.0 | 0.00 | 0.00 | 0.00 | 45 | 1018.3 |
| 20260507092804 | 75 | 199 | 10.0 | 26.0 | 0.00 | 0.00 | 0.00 | 46 | 1018.3 |
| 20260507092715 | 75 | 201 | 10.0 | 26.0 | 0.00 | 0.00 | 0.00 | 47 | 1018.3 |
| 20260507092604 | 74 | 205 | 9.0 | 26.0 | 0.00 | 0.00 | 0.00 | 45 | 1018.4 |
| 20260507092516 | 74 | 210 | 9.0 | 26.0 | 0.00 | 0.00 | 0.00 | 45 | 1018.4 |
| 20260507092404 | 74 | 212 | 9.0 | 26.0 | 0.00 | 0.00 | 0.00 | 49 | 1018.4 |
| 20260507092316 | 74 | 214 | 9.0 | 26.0 | 0.00 | 0.00 | 0.00 | 49 | 1018.5 |
| 20260507092204 | 74 | 217 | 9.0 | 22.0 | 0.00 | 0.00 | 0.00 | 50 | 1018.4 |
| 20260507092115 | 74 | 219 | 9.0 | 18.0 | 0.00 | 0.00 | 0.00 | 51 | 1018.4 |
| 20260507092003 | 74 | 222 | 9.0 | 18.0 | 0.00 | 0.00 | 0.00 | 55 | 1018.5 |
| 20260507091916 | 74 | 222 | 9.0 | 18.0 | 0.00 | 0.00 | 0.00 | 56 | 1018.5 |
| 20260507091804 | 74 | 224 | 10.0 | 20.0 | 0.00 | 0.00 | 0.00 | 55 | 1018.5 |
| 20260507091715 | 74 | 224 | 10.0 | 20.0 | 0.00 | 0.00 | 0.00 | 55 | 1018.5 |
| 20260507091605 | 74 | 224 | 10.0 | 20.0 | 0.00 | 0.00 | 0.00 | 56 | 1018.6 |
| 20260507091516 | 74 | 224 | 10.0 | 20.0 | 0.00 | 0.00 | 0.00 | 57 | 1018.6 |
| 20260507091403 | 74 | 224 | 10.0 | 20.0 | 0.00 | 0.00 | 0.00 | 58 | 1018.6 |
| 20260507091316 | 74 | 225 | 10.0 | 26.0 | 0.00 | 0.00 | 0.00 | 58 | 1018.6 |
| 20260507091204 | 73 | 226 | 10.0 | 26.0 | 0.00 | 0.00 | 0.00 | 58 | 1018.7 |
| 20260507091116 | 73 | 228 | 10.0 | 26.0 | 0.00 | 0.00 | 0.00 | 59 | 1018.7 |
| 20260507091003 | 73 | 229 | 10.0 | 26.0 | 0.00 | 0.00 | 0.00 | 58 | 1018.7 |
| 20260507090916 | 73 | 229 | 10.0 | 26.0 | 0.00 | 0.00 | 0.00 | 59 | 1018.7 |
| 20260507090803 | 73 | 230 | 9.0 | 26.0 | 0.00 | 0.00 | 0.00 | 60 | 1018.7 |
| 20260507090716 | 73 | 230 | 9.0 | 26.0 | 0.00 | 0.00 | 0.00 | 59 | 1018.7 |
| 20260507090604 | 73 | 230 | 9.0 | 26.0 | 0.00 | 0.00 | 0.00 | 58 | 1018.7 |
| 20260507090516 | 74 | 229 | 9.0 | 26.0 | 0.00 | 0.00 | 0.00 | 58 | 1018.6 |
| 20260507090404 | 74 | 226 | 9.0 | 26.0 | 0.00 | 0.00 | 0.00 | 58 | 1018.6 |
| 20260507090315 | 74 | 227 | 9.0 | 22.0 | 0.00 | 0.00 | 0.00 | 59 | 1018.6 |
| 20260507090204 | 74 | 230 | 10.0 | 22.0 | 0.00 | 0.00 | 0.00 | 58 | 1018.6 |
| 20260507090116 | 74 | 228 | 10.0 | 22.0 | 0.00 | 0.00 | 0.00 | 59 | 1018.6 |
| 20260507090005 | 74 | 228 | 10.0 | 20.0 | 0.00 | 0.00 | 0.00 | 58 | 1018.6 |
| 20260507085915 | 75 | 229 | 11.0 | 20.0 | 0.00 | 0.00 | 0.00 | 56 | 1018.6 |
| 20260507085804 | 75 | 229 | 11.0 | 20.0 | 0.00 | 0.00 | 0.00 | 56 | 1018.6 |
| 20260507085716 | 75 | 229 | 11.0 | 20.0 | 0.00 | 0.00 | 0.00 | 55 | 1018.6 |
| 20260507085604 | 75 | 227 | 11.0 | 20.0 | 0.00 | 0.00 | 0.00 | 55 | 1018.6 |
| 20260507085516 | 75 | 229 | 12.0 | 20.0 | 0.00 | 0.00 | 0.00 | 53 | 1018.6 |
| 20260507085404 | 75 | 231 | 12.0 | 20.0 | 0.00 | 0.00 | 0.00 | 50 | 1018.6 |
| 20260507085317 | 75 | 230 | 12.0 | 22.0 | 0.00 | 0.00 | 0.00 | 49 | 1018.6 |
| 20260507085203 | 75 | 228 | 12.0 | 22.0 | 0.00 | 0.00 | 0.00 | 46 | 1018.6 |
| 20260507085117 | 75 | 228 | 12.0 | 22.0 | 0.00 | 0.00 | 0.00 | 46 | 1018.5 |
| 20260507085004 | 75 | 225 | 12.0 | 22.0 | 0.00 | 0.00 | 0.00 | 48 | 1018.5 |
| 20260507084916 | 75 | 223 | 12.0 | 24.0 | 0.00 | 0.00 | 0.00 | 49 | 1018.5 |
| 20260507084804 | 75 | 221 | 12.0 | 24.0 | 0.00 | 0.00 | 0.00 | 46 | 1018.4 |
| 20260507084715 | 75 | 218 | 12.0 | 24.0 | 0.00 | 0.00 | 0.00 | 45 | 1018.4 |
| 20260507084603 | 75 | 218 | 12.0 | 24.0 | 0.00 | 0.00 | 0.00 | 42 | 1018.3 |
| 20260507084516 | 76 | 216 | 12.0 | 24.0 | 0.00 | 0.00 | 0.00 | 41 | 1018.3 |
| 20260507084404 | 76 | 216 | 12.0 | 24.0 | 0.00 | 0.00 | 0.00 | 43 | 1018.3 |
| 20260507084315 | 76 | 216 | 12.0 | 24.0 | 0.00 | 0.00 | 0.00 | 43 | 1018.3 |
| 20260507084203 | 76 | 215 | 12.0 | 24.0 | 0.00 | 0.00 | 0.00 | 40 | 1018.3 |
| 20260507084116 | 76 | 215 | 12.0 | 24.0 | 0.00 | 0.00 | 0.00 | 40 | 1018.3 |
| 20260507084004 | 76 | 217 | 12.0 | 24.0 | 0.00 | 0.00 | 0.00 | 39 | 1018.4 |
| 20260507083916 | 76 | 218 | 11.0 | 22.0 | 0.00 | 0.00 | 0.00 | 36 | 1018.3 |
| 20260507083804 | 76 | 219 | 11.0 | 22.0 | 0.00 | 0.00 | 0.00 | 31 | 1018.3 |
| 20260507083716 | 76 | 221 | 11.0 | 22.0 | 0.00 | 0.00 | 0.00 | 31 | 1018.4 |
| 20260507083603 | 76 | 222 | 11.0 | 22.0 | 0.00 | 0.00 | 0.00 | 32 | 1018.3 |
| 20260507083515 | 76 | 223 | 11.0 | 20.0 | 0.00 | 0.00 | 0.00 | 32 | 1018.3 |
| 20260507083404 | 76 | 222 | 10.0 | 20.0 | 0.00 | 0.00 | 0.00 | 31 | 1018.2 |
| 20260507083315 | 76 | 223 | 10.0 | 20.0 | 0.00 | 0.00 | 0.00 | 31 | 1018.2 |
| 20260507083203 | 76 | 225 | 10.0 | 20.0 | 0.00 | 0.00 | 0.00 | 30 | 1018.2 |
| 20260507083115 | 76 | 226 | 10.0 | 20.0 | 0.00 | 0.00 | 0.00 | 30 | 1018.2 |
| 20260507083004 | 76 | 224 | 10.0 | 22.0 | 0.00 | 0.00 | 0.00 | 29 | 1018.2 |
| 20260507082915 | 76 | 226 | 9.0 | 22.0 | 0.00 | 0.00 | 0.00 | 30 | 1018.1 |
| 20260507082804 | 77 | 226 | 9.0 | 22.0 | 0.00 | 0.00 | 0.00 | 30 | 1018.1 |
| 20260507082715 | 77 | 226 | 9.0 | 22.0 | 0.00 | 0.00 | 0.00 | 30 | 1018.0 |
| 20260507082604 | 77 | 225 | 8.0 | 22.0 | 0.00 | 0.00 | 0.00 | 30 | 1018.0 |
| 20260507082516 | 77 | 227 | 8.0 | 22.0 | 0.00 | 0.00 | 0.00 | 30 | 1018.0 |
| 20260507082404 | 77 | 228 | 8.0 | 22.0 | 0.00 | 0.00 | 0.00 | 30 | 1018.0 |
| 20260507082315 | 77 | 228 | 8.0 | 22.0 | 0.00 | 0.00 | 0.00 | 31 | 1018.0 |
| 20260507082203 | 77 | 227 | 8.0 | 22.0 | 0.00 | 0.00 | 0.00 | 31 | 1017.9 |
| 20260507082116 | 77 | 227 | 8.0 | 22.0 | 0.00 | 0.00 | 0.00 | 32 | 1018.0 |
| 20260507082004 | 77 | 224 | 7.0 | 18.0 | 0.00 | 0.00 | 0.00 | 31 | 1017.9 |
| 20260507081916 | 77 | 223 | 7.0 | 18.0 | 0.00 | 0.00 | 0.00 | 32 | 1017.9 |
| 20260507081803 | 77 | 224 | 7.0 | 18.0 | 0.00 | 0.00 | 0.00 | 32 | 1017.9 |
| 20260507081715 | 77 | 227 | 7.0 | 18.0 | 0.00 | 0.00 | 0.00 | 31 | 1017.9 |
| 20260507081604 | 77 | 227 | 7.0 | 18.0 | 0.00 | 0.00 | 0.00 | 30 | 1017.9 |
| 20260507081515 | 77 | 224 | 7.0 | 18.0 | 0.00 | 0.00 | 0.00 | 30 | 1017.8 |
| 20260507081404 | 77 | 223 | 7.0 | 18.0 | 0.00 | 0.00 | 0.00 | 31 | 1017.8 |
| 20260507081316 | 77 | 222 | 6.0 | 18.0 | 0.00 | 0.00 | 0.00 | 31 | 1017.9 |
| 20260507081204 | 77 | 221 | 6.0 | 18.0 | 0.00 | 0.00 | 0.00 | 31 | 1017.8 |
| 20260507081115 | 77 | 221 | 6.0 | 17.0 | 0.00 | 0.00 | 0.00 | 31 | 1017.8 |
| 20260507081004 | 77 | 226 | 6.0 | 17.0 | 0.00 | 0.00 | 0.00 | 32 | 1017.8 |
| 20260507080915 | 77 | 225 | 5.0 | 17.0 | 0.00 | 0.00 | 0.00 | 32 | 1017.8 |
| 20260507080804 | 77 | 223 | 5.0 | 17.0 | 0.00 | 0.00 | 0.00 | 32 | 1017.8 |
| 20260507080716 | 77 | 221 | 5.0 | 17.0 | 0.00 | 0.00 | 0.00 | 33 | 1017.8 |
| 20260507080604 | 76 | 223 | 5.0 | 17.0 | 0.00 | 0.00 | 0.00 | 32 | 1017.8 |
| 20260507080516 | 76 | 224 | 5.0 | 17.0 | 0.00 | 0.00 | 0.00 | 32 | 1017.8 |
| 20260507080403 | 76 | 222 | 5.0 | 15.0 | 0.00 | 0.00 | 0.00 | 32 | 1017.8 |
| 20260507080315 | 76 | 224 | 5.0 | 13.0 | 0.00 | 0.00 | 0.00 | 33 | 1017.8 |
| 20260507080204 | 76 | 227 | 4.0 | 13.0 | 0.00 | 0.00 | 0.00 | 33 | 1017.8 |
| 20260507080116 | 76 | 226 | 4.0 | 13.0 | 0.00 | 0.00 | 0.00 | 33 | 1017.8 |
| 20260507080004 | 76 | 224 | 4.0 | 13.0 | 0.00 | 0.00 | 0.00 | 34 | 1017.8 |
| 20260507075915 | 76 | 226 | 4.0 | 13.0 | 0.00 | 0.00 | 0.00 | 34 | 1017.8 |
| 20260507075803 | 76 | 233 | 4.0 | 13.0 | 0.00 | 0.00 | 0.00 | 34 | 1017.8 |
| 20260507075715 | 76 | 235 | 4.0 | 13.0 | 0.00 | 0.00 | 0.00 | 34 | 1017.8 |
| 20260507075604 | 75 | 237 | 4.0 | 13.0 | 0.00 | 0.00 | 0.00 | 34 | 1017.8 |
| 20260507075515 | 75 | 238 | 4.0 | 13.0 | 0.00 | 0.00 | 0.00 | 34 | 1017.8 |
| 20260507075404 | 75 | 245 | 4.0 | 13.0 | 0.00 | 0.00 | 0.00 | 34 | 1017.8 |
| 20260507075316 | 75 | 246 | 4.0 | 13.0 | 0.00 | 0.00 | 0.00 | 34 | 1017.8 |
| 20260507075204 | 75 | 245 | 4.0 | 13.0 | 0.00 | 0.00 | 0.00 | 35 | 1017.8 |
| 20260507075115 | 75 | 248 | 4.0 | 13.0 | 0.00 | 0.00 | 0.00 | 35 | 1017.8 |
| 20260507075003 | 75 | 255 | 4.0 | 13.0 | 0.00 | 0.00 | 0.00 | 36 | 1017.9 |
| 20260507074915 | 75 | 257 | 4.0 | 13.0 | 0.00 | 0.00 | 0.00 | 37 | 1017.8 |
| 20260507074804 | 75 | 257 | 4.0 | 13.0 | 0.00 | 0.00 | 0.00 | 38 | 1017.8 |
| 20260507074716 | 75 | 254 | 4.0 | 13.0 | 0.00 | 0.00 | 0.00 | 39 | 1017.8 |
| 20260507074603 | 75 | 251 | 4.0 | 11.0 | 0.00 | 0.00 | 0.00 | 40 | 1017.8 |
| 20260507074515 | 75 | 251 | 4.0 | 11.0 | 0.00 | 0.00 | 0.00 | 41 | 1017.8 |
| 20260507074404 | 75 | 251 | 4.0 | 9.0 | 0.00 | 0.00 | 0.00 | 44 | 1017.8 |
| 20260507074315 | 75 | 255 | 4.0 | 9.0 | 0.00 | 0.00 | 0.00 | 44 | 1017.8 |
| 20260507074204 | 75 | 258 | 4.0 | 9.0 | 0.00 | 0.00 | 0.00 | 44 | 1017.8 |
| 20260507074116 | 75 | 260 | 4.0 | 9.0 | 0.00 | 0.00 | 0.00 | 44 | 1017.8 |
| 20260507074004 | 75 | 256 | 4.0 | 9.0 | 0.00 | 0.00 | 0.00 | 45 | 1017.8 |
| 20260507073915 | 75 | 250 | 4.0 | 9.0 | 0.00 | 0.00 | 0.00 | 45 | 1017.8 |
| 20260507073803 | 75 | 243 | 4.0 | 9.0 | 0.00 | 0.00 | 0.00 | 44 | 1017.7 |
| 20260507073716 | 75 | 241 | 4.0 | 11.0 | 0.00 | 0.00 | 0.00 | 44 | 1017.8 |
| 20260507073603 | 75 | 243 | 4.0 | 11.0 | 0.00 | 0.00 | 0.00 | 44 | 1017.8 |
| 20260507073515 | 74 | 246 | 4.0 | 11.0 | 0.00 | 0.00 | 0.00 | 44 | 1017.7 |
| 20260507073403 | 74 | 249 | 3.0 | 11.0 | 0.00 | 0.00 | 0.00 | 44 | 1017.7 |
| 20260507073315 | 74 | 251 | 3.0 | 11.0 | 0.00 | 0.00 | 0.00 | 44 | 1017.7 |
| 20260507073203 | 74 | 250 | 3.0 | 11.0 | 0.00 | 0.00 | 0.00 | 44 | 1017.8 |
| 20260507073115 | 74 | 249 | 3.0 | 11.0 | 0.00 | 0.00 | 0.00 | 45 | 1017.7 |
| 20260507073003 | 74 | 255 | 3.0 | 11.0 | 0.00 | 0.00 | 0.00 | 46 | 1017.7 |
| 20260507072915 | 74 | 261 | 3.0 | 11.0 | 0.00 | 0.00 | 0.00 | 47 | 1017.7 |
| 20260507072803 | 74 | 272 | 3.0 | 11.0 | 0.00 | 0.00 | 0.00 | 48 | 1017.7 |
| 20260507072715 | 74 | 285 | 3.0 | 9.0 | 0.00 | 0.00 | 0.00 | 52 | 1017.7 |
| 20260507072604 | 74 | 275 | 3.0 | 9.0 | 0.00 | 0.00 | 0.00 | 52 | 1017.7 |
| 20260507072516 | 74 | 272 | 3.0 | 9.0 | 0.00 | 0.00 | 0.00 | 52 | 1017.7 |
| 20260507072404 | 74 | 270 | 3.0 | 9.0 | 0.00 | 0.00 | 0.00 | 52 | 1017.7 |
| 20260507072318 | 74 | 270 | 3.0 | 9.0 | 0.00 | 0.00 | 0.00 | 52 | 1017.6 |
| 20260507072203 | 73 | 271 | 3.0 | 9.0 | 0.00 | 0.00 | 0.00 | 52 | 1017.7 |
| 20260507072116 | 73 | 273 | 3.0 | 9.0 | 0.00 | 0.00 | 0.00 | 52 | 1017.7 |
| 20260507072003 | 73 | 270 | 3.0 | 9.0 | 0.00 | 0.00 | 0.00 | 52 | 1017.7 |
| 20260507071915 | 73 | 268 | 3.0 | 9.0 | 0.00 | 0.00 | 0.00 | 52 | 1017.7 |
| 20260507071803 | 73 | 265 | 3.0 | 9.0 | 0.00 | 0.00 | 0.00 | 52 | 1017.7 |
| 20260507071715 | 73 | 264 | 3.0 | 9.0 | 0.00 | 0.00 | 0.00 | 52 | 1017.7 |
| 20260507071604 | 73 | 268 | 3.0 | 9.0 | 0.00 | 0.00 | 0.00 | 51 | 1017.7 |
| 20260507071516 | 73 | 268 | 3.0 | 9.0 | 0.00 | 0.00 | 0.00 | 51 | 1017.6 |
| 20260507071403 | 73 | 267 | 3.0 | 9.0 | 0.00 | 0.00 | 0.00 | 50 | 1017.7 |
| 20260507071315 | 73 | 266 | 3.0 | 9.0 | 0.00 | 0.00 | 0.00 | 50 | 1017.6 |
| 20260507071203 | 73 | 263 | 3.0 | 6.0 | 0.00 | 0.00 | 0.00 | 50 | 1017.7 |
| 20260507071116 | 73 | 262 | 3.0 | 6.0 | 0.00 | 0.00 | 0.00 | 50 | 1017.7 |
| 20260507071004 | 73 | 269 | 4.0 | 6.0 | 0.00 | 0.00 | 0.00 | 50 | 1017.7 |
| 20260507070916 | 73 | 273 | 4.0 | 7.0 | 0.00 | 0.00 | 0.00 | 50 | 1017.7 |
| 20260507070804 | 73 | 276 | 4.0 | 7.0 | 0.00 | 0.00 | 0.00 | 50 | 1017.6 |
| 20260507070715 | 72 | 274 | 4.0 | 7.0 | 0.00 | 0.00 | 0.00 | 51 | 1017.6 |
| 20260507070603 | 72 | 272 | 4.0 | 9.0 | 0.00 | 0.00 | 0.00 | 50 | 1017.6 |
| 20260507070515 | 72 | 269 | 4.0 | 9.0 | 0.00 | 0.00 | 0.00 | 49 | 1017.6 |
| 20260507070403 | 72 | 269 | 4.0 | 9.0 | 0.00 | 0.00 | 0.00 | 49 | 1017.6 |
| 20260507070315 | 73 | 268 | 4.0 | 9.0 | 0.00 | 0.00 | 0.00 | 50 | 1017.6 |
| 20260507070203 | 73 | 270 | 4.0 | 9.0 | 0.00 | 0.00 | 0.00 | 50 | 1017.5 |
| 20260507070115 | 73 | 270 | 4.0 | 11.0 | 0.00 | 0.00 | 0.00 | 50 | 1017.6 |
| 20260507070005 | 72 | 271 | 4.0 | 11.0 | 0.00 | 0.00 | 0.00 | 50 | 1017.5 |
| 20260507065915 | 72 | 275 | 4.0 | 11.0 | 0.00 | 0.00 | 0.00 | 50 | 1017.5 |
| 20260507065803 | 72 | 281 | 4.0 | 13.0 | 0.00 | 0.00 | 0.00 | 50 | 1017.5 |
| 20260507065715 | 72 | 286 | 4.0 | 13.0 | 0.00 | 0.00 | 0.00 | 50 | 1017.5 |
| 20260507065603 | 72 | 290 | 4.0 | 13.0 | 0.00 | 0.00 | 0.00 | 49 | 1017.5 |
| 20260507065515 | 72 | 297 | 4.0 | 13.0 | 0.00 | 0.00 | 0.00 | 49 | 1017.4 |
| 20260507065404 | 72 | 302 | 4.0 | 13.0 | 0.00 | 0.00 | 0.00 | 48 | 1017.4 |
| 20260507065316 | 72 | 305 | 4.0 | 13.0 | 0.00 | 0.00 | 0.00 | 48 | 1017.4 |
| 20260507065203 | 73 | 308 | 4.0 | 13.0 | 0.00 | 0.00 | 0.00 | 48 | 1017.4 |
| 20260507065116 | 73 | 312 | 4.0 | 13.0 | 0.00 | 0.00 | 0.00 | 48 | 1017.4 |
| 20260507065003 | 73 | 309 | 4.0 | 13.0 | 0.00 | 0.00 | 0.00 | 48 | 1017.4 |
| 20260507064915 | 73 | 304 | 4.0 | 13.0 | 0.00 | 0.00 | 0.00 | 48 | 1017.4 |
| 20260507064803 | 73 | 299 | 4.0 | 9.0 | 0.00 | 0.00 | 0.00 | 49 | 1017.4 |
| 20260507064715 | 73 | 298 | 4.0 | 9.0 | 0.00 | 0.00 | 0.00 | 49 | 1017.4 |
| 20260507064603 | 73 | 295 | 4.0 | 11.0 | 0.00 | 0.00 | 0.00 | 48 | 1017.3 |
| 20260507064515 | 73 | 291 | 4.0 | 11.0 | 0.00 | 0.00 | 0.00 | 48 | 1017.4 |
| 20260507064403 | 73 | 288 | 4.0 | 11.0 | 0.00 | 0.00 | 0.00 | 48 | 1017.4 |
| 20260507064315 | 73 | 285 | 4.0 | 13.0 | 0.00 | 0.00 | 0.00 | 48 | 1017.4 |
| 20260507064203 | 73 | 283 | 4.0 | 13.0 | 0.00 | 0.00 | 0.00 | 49 | 1017.3 |
| 20260507064115 | 73 | 283 | 4.0 | 13.0 | 0.00 | 0.00 | 0.00 | 49 | 1017.3 |
| 20260507064003 | 73 | 282 | 4.0 | 13.0 | 0.00 | 0.00 | 0.00 | 49 | 1017.4 |
| 20260507063915 | 73 | 282 | 4.0 | 13.0 | 0.00 | 0.00 | 0.00 | 49 | 1017.3 |
| 20260507063803 | 73 | 282 | 4.0 | 13.0 | 0.00 | 0.00 | 0.00 | 48 | 1017.3 |
| 20260507063715 | 73 | 280 | 4.0 | 13.0 | 0.00 | 0.00 | 0.00 | 47 | 1017.3 |
| 20260507063603 | 74 | 279 | 4.0 | 13.0 | 0.00 | 0.00 | 0.00 | 46 | 1017.3 |
| 20260507063515 | 74 | 277 | 3.0 | 13.0 | 0.00 | 0.00 | 0.00 | 45 | 1017.3 |
| 20260507063403 | 74 | 274 | 3.0 | 13.0 | 0.00 | 0.00 | 0.00 | 43 | 1017.2 |
| 20260507063315 | 74 | 271 | 3.0 | 11.0 | 0.00 | 0.00 | 0.00 | 43 | 1017.2 |
| 20260507063203 | 74 | 269 | 3.0 | 6.0 | 0.00 | 0.00 | 0.00 | 41 | 1017.3 |
| 20260507063116 | 74 | 266 | 2.0 | 6.0 | 0.00 | 0.00 | 0.00 | 41 | 1017.2 |
| 20260507063003 | 74 | 263 | 2.0 | 6.0 | 0.00 | 0.00 | 0.00 | 41 | 1017.2 |
| 20260507062916 | 74 | 258 | 2.0 | 6.0 | 0.00 | 0.00 | 0.00 | 42 | 1017.2 |
| 20260507062804 | 75 | 248 | 2.0 | 6.0 | 0.00 | 0.00 | 0.00 | 42 | 1017.1 |
| 20260507062716 | 75 | 241 | 2.0 | 6.0 | 0.00 | 0.00 | 0.00 | 42 | 1017.1 |
| 20260507062603 | 75 | 230 | 2.0 | 6.0 | 0.00 | 0.00 | 0.00 | 42 | 1017.1 |
| 20260507062515 | 75 | 224 | 2.0 | 6.0 | 0.00 | 0.00 | 0.00 | 42 | 1017.1 |
| 20260507062403 | 76 | 215 | 1.0 | 6.0 | 0.00 | 0.00 | 0.00 | 41 | 1017.1 |
| 20260507062317 | 76 | 208 | 1.0 | 6.0 | 0.00 | 0.00 | 0.00 | 41 | 1017.1 |
| 20260507062203 | 76 | 183 | 1.0 | 6.0 | 0.00 | 0.00 | 0.00 | 39 | 1017.1 |
| 20260507062115 | 76 | 164 | 1.0 | 6.0 | 0.00 | 0.00 | 0.00 | 39 | 1017.0 |
| 20260507062003 | 76 | 151 | 1.0 | 6.0 | 0.00 | 0.00 | 0.00 | 39 | 1017.0 |
| 20260507061920 | 76 | 141 | 1.0 | 6.0 | 0.00 | 0.00 | 0.00 | 39 | 1017.0 |
| 20260507061803 | 76 | 115 | 1.0 | 6.0 | 0.00 | 0.00 | 0.00 | 38 | 1017.1 |
| 20260507061718 | 75 | 104 | 1.0 | 6.0 | 0.00 | 0.00 | 0.00 | 37 | 1017.0 |
| 20260507061604 | 75 | 102 | 1.0 | 6.0 | 0.00 | 0.00 | 0.00 | 37 | 1017.1 |
| 20260507061516 | 75 | 102 | 1.0 | 6.0 | 0.00 | 0.00 | 0.00 | 37 | 1017.1 |
| 20260507061403 | 75 | 102 | 1.0 | 6.0 | 0.00 | 0.00 | 0.00 | 37 | 1017.1 |
| 20260507061316 | 75 | 102 | 1.0 | 6.0 | 0.00 | 0.00 | 0.00 | 37 | 1017.1 |
| 20260507061203 | 74 | 101 | 1.0 | 6.0 | 0.00 | 0.00 | 0.00 | 36 | 1017.2 |
| 20260507061115 | 74 | 101 | 1.0 | 6.0 | 0.00 | 0.00 | 0.00 | 37 | 1017.2 |
| 20260507061003 | 74 | 100 | 1.0 | 6.0 | 0.00 | 0.00 | 0.00 | 37 | 1017.2 |
| 20260507060915 | 74 | 100 | 1.0 | 6.0 | 0.00 | 0.00 | 0.00 | 37 | 1017.2 |
| 20260507060803 | 74 | 100 | 1.0 | 6.0 | 0.00 | 0.00 | 0.00 | 38 | 1017.2 |
| 20260507060715 | 74 | 100 | 1.0 | 6.0 | 0.00 | 0.00 | 0.00 | 38 | 1017.1 |
| 20260507060603 | 73 | 99 | 1.0 | 6.0 | 0.00 | 0.00 | 0.00 | 38 | 1017.1 |
| 20260507060516 | 73 | 98 | 1.0 | 6.0 | 0.00 | 0.00 | 0.00 | 38 | 1017.1 |
| 20260507060403 | 73 | 97 | 1.0 | 6.0 | 0.00 | 0.00 | 0.00 | 39 | 1017.1 |
| 20260507060315 | 73 | 96 | 1.0 | 6.0 | 0.00 | 0.00 | 0.00 | 40 | 1017.1 |
| 20260507060204 | 73 | 96 | 1.0 | 6.0 | 0.00 | 0.00 | 0.00 | 41 | 1017.1 |
| 20260507060116 | 73 | 96 | 2.0 | 6.0 | 0.00 | 0.00 | 0.00 | 42 | 1017.1 |
| 20260507060003 | 72 | 95 | 2.0 | 6.0 | 0.00 | 0.00 | 0.00 | 42 | 1017.1 |
| 20260507055916 | 72 | 95 | 2.0 | 6.0 | 0.00 | 0.00 | 0.00 | 42 | 1017.1 |
| 20260507055803 | 72 | 94 | 2.0 | 6.0 | 0.00 | 0.00 | 0.00 | 41 | 1017.1 |
| 20260507055716 | 72 | 92 | 2.0 | 6.0 | 0.00 | 0.00 | 0.00 | 41 | 1017.2 |
| 20260507055603 | 72 | 90 | 2.0 | 6.0 | 0.00 | 0.00 | 0.00 | 41 | 1017.2 |
| 20260507055517 | 72 | 90 | 2.0 | 6.0 | 0.00 | 0.00 | 0.00 | 42 | 1017.2 |
| 20260507055403 | 71 | 89 | 3.0 | 6.0 | 0.00 | 0.00 | 0.00 | 42 | 1017.2 |
| 20260507055318 | 71 | 88 | 3.0 | 6.0 | 0.00 | 0.00 | 0.00 | 42 | 1017.2 |
| 20260507055203 | 71 | 87 | 3.0 | 7.0 | 0.00 | 0.00 | 0.00 | 42 | 1017.2 |
| 20260507055116 | 71 | 87 | 3.0 | 7.0 | 0.00 | 0.00 | 0.00 | 41 | 1017.2 |
| 20260507055003 | 71 | 87 | 3.0 | 7.0 | 0.00 | 0.00 | 0.00 | 42 | 1017.2 |
| 20260507054917 | 71 | 86 | 3.0 | 7.0 | 0.00 | 0.00 | 0.00 | 43 | 1017.2 |
| 20260507054804 | 70 | 86 | 3.0 | 7.0 | 0.00 | 0.00 | 0.00 | 44 | 1017.2 |
| 20260507054717 | 70 | 85 | 3.0 | 7.0 | 0.00 | 0.00 | 0.00 | 46 | 1017.1 |
| 20260507054604 | 70 | 84 | 4.0 | 7.0 | 0.00 | 0.00 | 0.00 | 46 | 1017.2 |
| 20260507054517 | 70 | 83 | 4.0 | 7.0 | 0.00 | 0.00 | 0.00 | 46 | 1017.2 |
| 20260507054403 | 70 | 83 | 4.0 | 7.0 | 0.00 | 0.00 | 0.00 | 46 | 1017.2 |
| 20260507054317 | 70 | 83 | 4.0 | 7.0 | 0.00 | 0.00 | 0.00 | 46 | 1017.2 |
| 20260507054204 | 69 | 82 | 4.0 | 6.0 | 0.00 | 0.00 | 0.00 | 47 | 1017.2 |
| 20260507054117 | 69 | 82 | 4.0 | 6.0 | 0.00 | 0.00 | 0.00 | 47 | 1017.2 |
| 20260507054003 | 69 | 82 | 4.0 | 6.0 | 0.00 | 0.00 | 0.00 | 48 | 1017.3 |
| 20260507053918 | 69 | 82 | 4.0 | 6.0 | 0.00 | 0.00 | 0.00 | 48 | 1017.3 |
| 20260507053804 | 69 | 82 | 5.0 | 9.0 | 0.00 | 0.00 | 0.00 | 49 | 1017.3 |
| 20260507053716 | 69 | 82 | 5.0 | 9.0 | 0.00 | 0.00 | 0.00 | 49 | 1017.3 |
| 20260507053603 | 69 | 81 | 5.0 | 11.0 | 0.00 | 0.00 | 0.00 | 50 | 1017.3 |
| 20260507053517 | 69 | 81 | 5.0 | 11.0 | 0.00 | 0.00 | 0.00 | 51 | 1017.3 |
| 20260507053404 | 68 | 81 | 5.0 | 11.0 | 0.00 | 0.00 | 0.00 | 50 | 1017.3 |
| 20260507053317 | 68 | 81 | 5.0 | 11.0 | 0.00 | 0.00 | 0.00 | 50 | 1017.4 |
| 20260507053204 | 68 | 81 | 5.0 | 11.0 | 0.00 | 0.00 | 0.00 | 51 | 1017.3 |
| 20260507053117 | 68 | 80 | 6.0 | 11.0 | 0.00 | 0.00 | 0.00 | 51 | 1017.3 |
| 20260507053003 | 68 | 79 | 6.0 | 13.0 | 0.00 | 0.00 | 0.00 | 51 | 1017.3 |
| 20260507052916 | 68 | 79 | 6.0 | 13.0 | 0.00 | 0.00 | 0.00 | 52 | 1017.3 |
| 20260507052803 | 67 | 79 | 6.0 | 13.0 | 0.00 | 0.00 | 0.00 | 52 | 1017.3 |
| 20260507052716 | 67 | 78 | 6.0 | 13.0 | 0.00 | 0.00 | 0.00 | 52 | 1017.4 |
| 20260507052603 | 67 | 79 | 6.0 | 13.0 | 0.00 | 0.00 | 0.00 | 53 | 1017.3 |
| 20260507052517 | 67 | 79 | 6.0 | 13.0 | 0.00 | 0.00 | 0.00 | 53 | 1017.4 |
| 20260507052404 | 67 | 79 | 5.0 | 13.0 | 0.00 | 0.00 | 0.00 | 54 | 1017.3 |
| 20260507052318 | 67 | 79 | 5.0 | 13.0 | 0.00 | 0.00 | 0.00 | 54 | 1017.3 |
| 20260507052203 | 67 | 79 | 5.0 | 13.0 | 0.00 | 0.00 | 0.00 | 54 | 1017.3 |
| 20260507052117 | 67 | 79 | 5.0 | 13.0 | 0.00 | 0.00 | 0.00 | 55 | 1017.4 |
| 20260507052004 | 66 | 79 | 5.0 | 13.0 | 0.00 | 0.00 | 0.00 | 55 | 1017.3 |
| 20260507051917 | 66 | 79 | 5.0 | 11.0 | 0.00 | 0.00 | 0.00 | 56 | 1017.4 |
| 20260507051803 | 66 | 79 | 5.0 | 11.0 | 0.00 | 0.00 | 0.00 | 56 | 1017.3 |
| 20260507051717 | 66 | 79 | 4.0 | 11.0 | 0.00 | 0.00 | 0.00 | 56 | 1017.3 |
| 20260507051603 | 66 | 78 | 4.0 | 11.0 | 0.00 | 0.00 | 0.00 | 57 | 1017.4 |
| 20260507051517 | 66 | 77 | 4.0 | 11.0 | 0.00 | 0.00 | 0.00 | 58 | 1017.3 |
| 20260507051403 | 65 | 77 | 4.0 | 9.0 | 0.00 | 0.00 | 0.00 | 58 | 1017.3 |
| 20260507051316 | 65 | 77 | 4.0 | 9.0 | 0.00 | 0.00 | 0.00 | 58 | 1017.3 |
| 20260507051203 | 65 | 76 | 4.0 | 9.0 | 0.00 | 0.00 | 0.00 | 58 | 1017.3 |
| 20260507051116 | 65 | 76 | 4.0 | 11.0 | 0.00 | 0.00 | 0.00 | 58 | 1017.3 |
| 20260507051003 | 65 | 76 | 4.0 | 11.0 | 0.00 | 0.00 | 0.00 | 59 | 1017.3 |
| 20260507050917 | 65 | 76 | 4.0 | 11.0 | 0.00 | 0.00 | 0.00 | 59 | 1017.3 |
| 20260507050803 | 64 | 75 | 4.0 | 11.0 | 0.00 | 0.00 | 0.00 | 59 | 1017.2 |
| 20260507050717 | 64 | 75 | 4.0 | 11.0 | 0.00 | 0.00 | 0.00 | 59 | 1017.2 |
| 20260507050603 | 64 | 74 | 5.0 | 11.0 | 0.00 | 0.00 | 0.00 | 60 | 1017.2 |
| 20260507050516 | 64 | 73 | 5.0 | 11.0 | 0.00 | 0.00 | 0.00 | 60 | 1017.2 |
| 20260507050403 | 64 | 72 | 5.0 | 11.0 | 0.00 | 0.00 | 0.00 | 60 | 1017.2 |
| 20260507050316 | 64 | 73 | 5.0 | 11.0 | 0.00 | 0.00 | 0.00 | 60 | 1017.2 |
| 20260507050203 | 64 | 73 | 5.0 | 11.0 | 0.00 | 0.00 | 0.00 | 60 | 1017.3 |
| 20260507050116 | 64 | 72 | 5.0 | 11.0 | 0.00 | 0.00 | 0.00 | 60 | 1017.3 |
| 20260507050004 | 64 | 72 | 5.0 | 11.0 | 0.00 | 0.00 | 0.00 | 60 | 1017.3 |
| 20260507045916 | 64 | 72 | 6.0 | 11.0 | 0.00 | 0.00 | 0.00 | 60 | 1017.3 |
| 20260507045804 | 64 | 73 | 6.0 | 13.0 | 0.00 | 0.00 | 0.00 | 60 | 1017.4 |
| 20260507045716 | 64 | 74 | 6.0 | 13.0 | 0.00 | 0.00 | 0.00 | 61 | 1017.4 |
| 20260507045604 | 63 | 75 | 6.0 | 13.0 | 0.00 | 0.00 | 0.00 | 61 | 1017.4 |
| 20260507045516 | 63 | 76 | 6.0 | 13.0 | 0.00 | 0.00 | 0.00 | 61 | 1017.4 |
| 20260507045403 | 63 | 76 | 5.0 | 13.0 | 0.00 | 0.00 | 0.00 | 61 | 1017.4 |
| 20260507045317 | 63 | 76 | 5.0 | 13.0 | 0.00 | 0.00 | 0.00 | 61 | 1017.3 |
| 20260507045204 | 63 | 77 | 5.0 | 13.0 | 0.00 | 0.00 | 0.00 | 62 | 1017.2 |
| 20260507045116 | 63 | 77 | 5.0 | 13.0 | 0.00 | 0.00 | 0.00 | 62 | 1017.2 |
| 20260507045003 | 63 | 78 | 5.0 | 13.0 | 0.00 | 0.00 | 0.00 | 62 | 1017.2 |
| 20260507044915 | 63 | 78 | 5.0 | 13.0 | 0.00 | 0.00 | 0.00 | 62 | 1017.1 |
| 20260507044803 | 63 | 78 | 5.0 | 13.0 | 0.00 | 0.00 | 0.00 | 63 | 1017.1 |
| 20260507044716 | 63 | 79 | 5.0 | 13.0 | 0.00 | 0.00 | 0.00 | 63 | 1017.1 |
| 20260507044603 | 63 | 79 | 5.0 | 11.0 | 0.00 | 0.00 | 0.00 | 63 | 1017.1 |
| 20260507044515 | 63 | 79 | 5.0 | 11.0 | 0.00 | 0.00 | 0.00 | 63 | 1017.1 |
| 20260507044403 | 63 | 78 | 5.0 | 11.0 | 0.00 | 0.00 | 0.00 | 63 | 1017.1 |
| 20260507044316 | 63 | 78 | 5.0 | 11.0 | 0.00 | 0.00 | 0.00 | 63 | 1017.1 |
| 20260507044204 | 63 | 79 | 5.0 | 11.0 | 0.00 | 0.00 | 0.00 | 63 | 1017.0 |
| 20260507044116 | 63 | 78 | 6.0 | 11.0 | 0.00 | 0.00 | 0.00 | 63 | 1017.1 |
| 20260507044004 | 63 | 79 | 6.0 | 11.0 | 0.00 | 0.00 | 0.00 | 63 | 1017.1 |
| 20260507043915 | 63 | 79 | 6.0 | 13.0 | 0.00 | 0.00 | 0.00 | 63 | 1017.0 |
| 20260507043803 | 63 | 79 | 6.0 | 13.0 | 0.00 | 0.00 | 0.00 | 63 | 1017.1 |
| 20260507043715 | 63 | 79 | 6.0 | 13.0 | 0.00 | 0.00 | 0.00 | 63 | 1017.1 |
| 20260507043604 | 63 | 79 | 6.0 | 13.0 | 0.00 | 0.00 | 0.00 | 63 | 1017.1 |
| 20260507043516 | 63 | 79 | 6.0 | 13.0 | 0.00 | 0.00 | 0.00 | 63 | 1017.1 |
| 20260507043404 | 63 | 80 | 7.0 | 13.0 | 0.00 | 0.00 | 0.00 | 63 | 1017.1 |
| 20260507043315 | 63 | 80 | 7.0 | 13.0 | 0.00 | 0.00 | 0.00 | 63 | 1017.1 |
| 20260507043203 | 63 | 80 | 7.0 | 13.0 | 0.00 | 0.00 | 0.00 | 63 | 1017.1 |
| 20260507043115 | 63 | 80 | 7.0 | 13.0 | 0.00 | 0.00 | 0.00 | 63 | 1017.1 |
| 20260507043003 | 63 | 80 | 7.0 | 13.0 | 0.00 | 0.00 | 0.00 | 63 | 1017.1 |
| 20260507042915 | 63 | 80 | 7.0 | 13.0 | 0.00 | 0.00 | 0.00 | 63 | 1017.1 |
| 20260507042803 | 63 | 80 | 7.0 | 13.0 | 0.00 | 0.00 | 0.00 | 63 | 1017.2 |
| 20260507042715 | 63 | 80 | 7.0 | 13.0 | 0.00 | 0.00 | 0.00 | 63 | 1017.1 |
| 20260507042603 | 63 | 80 | 7.0 | 13.0 | 0.00 | 0.00 | 0.00 | 63 | 1017.1 |
| 20260507042515 | 63 | 80 | 6.0 | 13.0 | 0.00 | 0.00 | 0.00 | 63 | 1017.2 |
| 20260507042403 | 63 | 80 | 6.0 | 13.0 | 0.00 | 0.00 | 0.00 | 63 | 1017.1 |
| 20260507042316 | 63 | 80 | 6.0 | 13.0 | 0.00 | 0.00 | 0.00 | 63 | 1017.2 |
| 20260507042203 | 63 | 80 | 6.0 | 13.0 | 0.00 | 0.00 | 0.00 | 64 | 1017.1 |
| 20260507042115 | 63 | 80 | 6.0 | 13.0 | 0.00 | 0.00 | 0.00 | 64 | 1017.1 |
| 20260507042004 | 63 | 80 | 6.0 | 13.0 | 0.00 | 0.00 | 0.00 | 64 | 1017.1 |
| 20260507041916 | 63 | 81 | 6.0 | 13.0 | 0.00 | 0.00 | 0.00 | 64 | 1017.1 |
| 20260507041804 | 63 | 81 | 6.0 | 13.0 | 0.00 | 0.00 | 0.00 | 64 | 1017.0 |
| 20260507041715 | 63 | 82 | 6.0 | 13.0 | 0.00 | 0.00 | 0.00 | 64 | 1017.0 |
| 20260507041603 | 63 | 82 | 6.0 | 13.0 | 0.00 | 0.00 | 0.00 | 64 | 1017.0 |
| 20260507041515 | 63 | 82 | 6.0 | 13.0 | 0.00 | 0.00 | 0.00 | 64 | 1016.9 |
| 20260507041404 | 63 | 82 | 6.0 | 13.0 | 0.00 | 0.00 | 0.00 | 64 | 1017.0 |
| 20260507041316 | 63 | 82 | 6.0 | 13.0 | 0.00 | 0.00 | 0.00 | 65 | 1016.9 |
| 20260507041203 | 62 | 82 | 6.0 | 15.0 | 0.00 | 0.00 | 0.00 | 65 | 1017.0 |
| 20260507041115 | 62 | 82 | 6.0 | 15.0 | 0.00 | 0.00 | 0.00 | 65 | 1016.9 |
| 20260507041003 | 62 | 83 | 6.0 | 15.0 | 0.00 | 0.00 | 0.00 | 65 | 1017.0 |
| 20260507040915 | 62 | 82 | 6.0 | 15.0 | 0.00 | 0.00 | 0.00 | 65 | 1017.0 |
| 20260507040804 | 62 | 82 | 6.0 | 15.0 | 0.00 | 0.00 | 0.00 | 65 | 1017.0 |
| 20260507040716 | 62 | 82 | 6.0 | 15.0 | 0.00 | 0.00 | 0.00 | 65 | 1017.0 |
| 20260507040604 | 62 | 81 | 6.0 | 15.0 | 0.00 | 0.00 | 0.00 | 66 | 1017.0 |
| 20260507040516 | 62 | 82 | 6.0 | 15.0 | 0.00 | 0.00 | 0.00 | 66 | 1017.0 |
| 20260507040403 | 62 | 81 | 6.0 | 15.0 | 0.00 | 0.00 | 0.00 | 66 | 1017.0 |
| 20260507040316 | 62 | 81 | 6.0 | 15.0 | 0.00 | 0.00 | 0.00 | 66 | 1017.0 |
| 20260507040204 | 62 | 82 | 6.0 | 15.0 | 0.00 | 0.00 | 0.00 | 66 | 1017.0 |
| 20260507040116 | 62 | 82 | 6.0 | 13.0 | 0.00 | 0.00 | 0.00 | 66 | 1017.1 |
| 20260507040004 | 62 | 82 | 6.0 | 13.0 | 0.00 | 0.00 | 0.00 | 67 | 1017.1 |
| 20260507035915 | 62 | 82 | 6.0 | 13.0 | 0.00 | 0.00 | 0.00 | 67 | 1017.1 |
| 20260507035803 | 62 | 82 | 6.0 | 13.0 | 0.00 | 0.00 | 0.00 | 67 | 1017.1 |
| 20260507035716 | 62 | 82 | 6.0 | 13.0 | 0.00 | 0.00 | 0.00 | 67 | 1017.1 |
| 20260506225916 | 62 | 74 | 4.0 | 11.0 | 0.00 | 0.00 | 0.00 | 65 | 1016.4 |
| 20260506225804 | 62 | 74 | 4.0 | 11.0 | 0.00 | 0.00 | 0.00 | 65 | 1016.4 |
| 20260506225717 | 62 | 75 | 4.0 | 9.0 | 0.00 | 0.00 | 0.00 | 66 | 1016.4 |
| 20260506225604 | 62 | 76 | 4.0 | 9.0 | 0.00 | 0.00 | 0.00 | 67 | 1016.4 |
| 20260506225516 | 62 | 77 | 4.0 | 6.0 | 0.00 | 0.00 | 0.00 | 68 | 1016.5 |
| 20260506225404 | 63 | 78 | 4.0 | 6.0 | 0.00 | 0.00 | 0.00 | 68 | 1016.5 |
| 20260506225316 | 63 | 79 | 4.0 | 6.0 | 0.00 | 0.00 | 0.00 | 68 | 1016.5 |
| 20260506225203 | 63 | 78 | 4.0 | 6.0 | 0.00 | 0.00 | 0.00 | 69 | 1016.5 |
| 20260506225116 | 63 | 78 | 4.0 | 6.0 | 0.00 | 0.00 | 0.00 | 69 | 1016.5 |
| 20260506225004 | 63 | 78 | 4.0 | 7.0 | 0.00 | 0.00 | 0.00 | 69 | 1016.5 |
| 20260506224916 | 63 | 77 | 4.0 | 7.0 | 0.00 | 0.00 | 0.00 | 69 | 1016.5 |
| 20260506224804 | 63 | 77 | 4.0 | 7.0 | 0.00 | 0.00 | 0.00 | 69 | 1016.6 |
| 20260506224717 | 63 | 77 | 4.0 | 7.0 | 0.00 | 0.00 | 0.00 | 69 | 1016.6 |
| 20260506224603 | 63 | 77 | 4.0 | 7.0 | 0.00 | 0.00 | 0.00 | 69 | 1016.6 |
| 20260506224516 | 63 | 77 | 4.0 | 7.0 | 0.00 | 0.00 | 0.00 | 69 | 1016.6 |
| 20260506224403 | 63 | 77 | 3.0 | 7.0 | 0.00 | 0.00 | 0.00 | 69 | 1016.6 |
| 20260506224316 | 63 | 77 | 3.0 | 7.0 | 0.00 | 0.00 | 0.00 | 69 | 1016.6 |
| 20260506224203 | 63 | 78 | 3.0 | 7.0 | 0.00 | 0.00 | 0.00 | 68 | 1016.6 |
| 20260506224116 | 63 | 78 | 3.0 | 7.0 | 0.00 | 0.00 | 0.00 | 68 | 1016.6 |
| 20260506224004 | 63 | 78 | 3.0 | 7.0 | 0.00 | 0.00 | 0.00 | 68 | 1016.6 |
| 20260506223916 | 63 | 78 | 3.0 | 7.0 | 0.00 | 0.00 | 0.00 | 67 | 1016.6 |
| 20260506223803 | 63 | 79 | 3.0 | 7.0 | 0.00 | 0.00 | 0.00 | 67 | 1016.6 |
| 20260506223716 | 63 | 78 | 3.0 | 7.0 | 0.00 | 0.00 | 0.00 | 67 | 1016.7 |
| 20260506223603 | 63 | 78 | 3.0 | 7.0 | 0.00 | 0.00 | 0.00 | 67 | 1016.7 |
| 20260506223516 | 63 | 78 | 3.0 | 6.0 | 0.00 | 0.00 | 0.00 | 66 | 1016.7 |
| 20260506223403 | 63 | 78 | 3.0 | 6.0 | 0.00 | 0.00 | 0.00 | 66 | 1016.7 |
| 20260506223315 | 63 | 77 | 3.0 | 6.0 | 0.00 | 0.00 | 0.00 | 66 | 1016.7 |
| 20260506223203 | 63 | 77 | 3.0 | 6.0 | 0.00 | 0.00 | 0.00 | 65 | 1016.7 |
| 20260506223115 | 63 | 76 | 3.0 | 6.0 | 0.00 | 0.00 | 0.00 | 65 | 1016.7 |
| 20260506223003 | 63 | 77 | 3.0 | 7.0 | 0.00 | 0.00 | 0.00 | 65 | 1016.7 |
| 20260506222916 | 63 | 77 | 2.0 | 7.0 | 0.00 | 0.00 | 0.00 | 65 | 1016.7 |
| 20260506222803 | 63 | 77 | 2.0 | 7.0 | 0.00 | 0.00 | 0.00 | 64 | 1016.7 |
| 20260506222716 | 63 | 77 | 2.0 | 7.0 | 0.00 | 0.00 | 0.00 | 64 | 1016.7 |
| 20260506222603 | 63 | 77 | 2.0 | 7.0 | 0.00 | 0.00 | 0.00 | 64 | 1016.7 |
| 20260506222516 | 63 | 78 | 2.0 | 7.0 | 0.00 | 0.00 | 0.00 | 63 | 1016.7 |
| 20260506222404 | 63 | 78 | 2.0 | 7.0 | 0.00 | 0.00 | 0.00 | 62 | 1016.7 |
| 20260506222316 | 63 | 78 | 2.0 | 7.0 | 0.00 | 0.00 | 0.00 | 62 | 1016.7 |
| 20260506222203 | 63 | 79 | 1.0 | 7.0 | 0.00 | 0.00 | 0.00 | 61 | 1016.6 |
| 20260506222117 | 63 | 80 | 1.0 | 7.0 | 0.00 | 0.00 | 0.00 | 61 | 1016.7 |
| 20260506222003 | 63 | 80 | 1.0 | 6.0 | 0.00 | 0.00 | 0.00 | 60 | 1016.7 |
| 20260506221916 | 63 | 81 | 2.0 | 6.0 | 0.00 | 0.00 | 0.00 | 60 | 1016.7 |
| 20260506221803 | 63 | 81 | 2.0 | 4.0 | 0.00 | 0.00 | 0.00 | 60 | 1016.7 |
| 20260506221716 | 63 | 81 | 2.0 | 4.0 | 0.00 | 0.00 | 0.00 | 59 | 1016.7 |
| 20260506221603 | 63 | 80 | 2.0 | 6.0 | 0.00 | 0.00 | 0.00 | 59 | 1016.7 |
| 20260506221516 | 63 | 80 | 2.0 | 6.0 | 0.00 | 0.00 | 0.00 | 59 | 1016.7 |
| 20260506221403 | 63 | 80 | 3.0 | 6.0 | 0.00 | 0.00 | 0.00 | 58 | 1016.7 |
| 20260506221316 | 63 | 80 | 3.0 | 6.0 | 0.00 | 0.00 | 0.00 | 58 | 1016.7 |
| 20260506221203 | 63 | 80 | 3.0 | 6.0 | 0.00 | 0.00 | 0.00 | 58 | 1016.7 |
| 20260506221115 | 63 | 80 | 3.0 | 7.0 | 0.00 | 0.00 | 0.00 | 58 | 1016.7 |
| 20260506221003 | 63 | 80 | 4.0 | 7.0 | 0.00 | 0.00 | 0.00 | 58 | 1016.6 |
| 20260506220915 | 63 | 80 | 4.0 | 7.0 | 0.00 | 0.00 | 0.00 | 58 | 1016.7 |
| 20260506220803 | 63 | 80 | 4.0 | 7.0 | 0.00 | 0.00 | 0.00 | 58 | 1016.6 |
| 20260506220716 | 63 | 80 | 4.0 | 7.0 | 0.00 | 0.00 | 0.00 | 58 | 1016.6 |
| 20260506220604 | 63 | 80 | 4.0 | 7.0 | 0.00 | 0.00 | 0.00 | 58 | 1016.7 |
| 20260506220517 | 63 | 80 | 4.0 | 7.0 | 0.00 | 0.00 | 0.00 | 58 | 1016.7 |
| 20260506220403 | 63 | 79 | 4.0 | 7.0 | 0.00 | 0.00 | 0.00 | 58 | 1016.6 |
| 20260506220316 | 63 | 79 | 4.0 | 7.0 | 0.00 | 0.00 | 0.00 | 58 | 1016.6 |
| 20260506220203 | 63 | 79 | 4.0 | 7.0 | 0.00 | 0.00 | 0.00 | 58 | 1016.6 |
| 20260506220116 | 63 | 78 | 4.0 | 7.0 | 0.00 | 0.00 | 0.00 | 58 | 1016.6 |
| 20260506220004 | 63 | 78 | 4.0 | 7.0 | 0.00 | 0.00 | 0.00 | 58 | 1016.6 |
| 20260506215918 | 63 | 78 | 4.0 | 7.0 | 0.00 | 0.00 | 0.00 | 58 | 1016.6 |
| 20260506215803 | 63 | 78 | 4.0 | 7.0 | 0.00 | 0.00 | 0.00 | 58 | 1016.6 |
| 20260506215715 | 63 | 77 | 4.0 | 7.0 | 0.00 | 0.00 | 0.00 | 58 | 1016.5 |
| 20260506215603 | 63 | 77 | 4.0 | 7.0 | 0.00 | 0.00 | 0.00 | 58 | 1016.5 |
| 20260506215516 | 63 | 76 | 4.0 | 7.0 | 0.00 | 0.00 | 0.00 | 58 | 1016.6 |
| 20260506215403 | 63 | 76 | 4.0 | 7.0 | 0.00 | 0.00 | 0.00 | 58 | 1016.6 |
| 20260506215316 | 63 | 76 | 4.0 | 11.0 | 0.00 | 0.00 | 0.00 | 58 | 1016.6 |
| 20260506215203 | 63 | 76 | 4.0 | 11.0 | 0.00 | 0.00 | 0.00 | 58 | 1016.6 |
| 20260506215116 | 63 | 77 | 4.0 | 11.0 | 0.00 | 0.00 | 0.00 | 58 | 1016.6 |
| 20260506215004 | 63 | 77 | 4.0 | 11.0 | 0.00 | 0.00 | 0.00 | 58 | 1016.6 |
| 20260506214916 | 64 | 77 | 4.0 | 11.0 | 0.00 | 0.00 | 0.00 | 58 | 1016.6 |
| 20260506214804 | 64 | 77 | 4.0 | 11.0 | 0.00 | 0.00 | 0.00 | 58 | 1016.6 |
| 20260506214716 | 64 | 77 | 4.0 | 11.0 | 0.00 | 0.00 | 0.00 | 58 | 1016.6 |
| 20260506214604 | 64 | 77 | 4.0 | 11.0 | 0.00 | 0.00 | 0.00 | 58 | 1016.6 |
| 20260506214516 | 64 | 76 | 4.0 | 11.0 | 0.00 | 0.00 | 0.00 | 58 | 1016.6 |
| 20260506214403 | 64 | 76 | 4.0 | 11.0 | 0.00 | 0.00 | 0.00 | 58 | 1016.6 |
| 20260506214317 | 64 | 77 | 4.0 | 7.0 | 0.00 | 0.00 | 0.00 | 58 | 1016.6 |
| 20260506214204 | 64 | 77 | 4.0 | 7.0 | 0.00 | 0.00 | 0.00 | 58 | 1016.6 |
| 20260506214116 | 64 | 77 | 4.0 | 7.0 | 0.00 | 0.00 | 0.00 | 58 | 1016.6 |
| 20260506214003 | 64 | 77 | 4.0 | 7.0 | 0.00 | 0.00 | 0.00 | 58 | 1016.6 |
| 20260506213916 | 64 | 77 | 4.0 | 7.0 | 0.00 | 0.00 | 0.00 | 58 | 1016.6 |
| 20260506213803 | 64 | 77 | 3.0 | 7.0 | 0.00 | 0.00 | 0.00 | 58 | 1016.6 |
| 20260506213716 | 64 | 77 | 3.0 | 7.0 | 0.00 | 0.00 | 0.00 | 58 | 1016.7 |
| 20260506213604 | 64 | 77 | 3.0 | 7.0 | 0.00 | 0.00 | 0.00 | 58 | 1016.7 |
| 20260506213517 | 64 | 77 | 3.0 | 7.0 | 0.00 | 0.00 | 0.00 | 58 | 1016.7 |
| 20260506213403 | 64 | 77 | 3.0 | 6.0 | 0.00 | 0.00 | 0.00 | 58 | 1016.7 |
| 20260506213317 | 64 | 77 | 3.0 | 6.0 | 0.00 | 0.00 | 0.00 | 59 | 1016.7 |
| 20260506213203 | 64 | 76 | 3.0 | 7.0 | 0.00 | 0.00 | 0.00 | 59 | 1016.7 |
| 20260506213116 | 64 | 77 | 3.0 | 7.0 | 0.00 | 0.00 | 0.00 | 59 | 1016.7 |
| 20260506213003 | 64 | 77 | 3.0 | 7.0 | 0.00 | 0.00 | 0.00 | 59 | 1016.7 |
| 20260506212915 | 64 | 77 | 3.0 | 7.0 | 0.00 | 0.00 | 0.00 | 59 | 1016.7 |
| 20260506212803 | 64 | 77 | 3.0 | 7.0 | 0.00 | 0.00 | 0.00 | 59 | 1016.7 |
| 20260506212716 | 64 | 77 | 3.0 | 7.0 | 0.00 | 0.00 | 0.00 | 59 | 1016.7 |
| 20260506212603 | 64 | 77 | 4.0 | 7.0 | 0.00 | 0.00 | 0.00 | 59 | 1016.7 |
| 20260506212516 | 64 | 78 | 4.0 | 7.0 | 0.00 | 0.00 | 0.00 | 59 | 1016.7 |
| 20260506212403 | 64 | 78 | 4.0 | 7.0 | 0.00 | 0.00 | 0.00 | 59 | 1016.8 |
| 20260506212317 | 64 | 79 | 4.0 | 7.0 | 0.00 | 0.00 | 0.00 | 59 | 1016.7 |
| 20260506212203 | 64 | 80 | 4.0 | 6.0 | 0.00 | 0.00 | 0.00 | 59 | 1016.8 |
| 20260506212116 | 64 | 81 | 4.0 | 6.0 | 0.00 | 0.00 | 0.00 | 59 | 1016.7 |
| 20260506212004 | 64 | 81 | 4.0 | 7.0 | 0.00 | 0.00 | 0.00 | 60 | 1016.8 |
| 20260506211917 | 64 | 82 | 4.0 | 7.0 | 0.00 | 0.00 | 0.00 | 60 | 1016.8 |
| 20260506211804 | 64 | 81 | 4.0 | 7.0 | 0.00 | 0.00 | 0.00 | 60 | 1016.8 |
| 20260506211717 | 64 | 81 | 4.0 | 11.0 | 0.00 | 0.00 | 0.00 | 60 | 1016.8 |
| 20260506211604 | 64 | 82 | 4.0 | 11.0 | 0.00 | 0.00 | 0.00 | 60 | 1016.8 |
| 20260506211516 | 64 | 82 | 4.0 | 11.0 | 0.00 | 0.00 | 0.00 | 60 | 1016.8 |
| 20260506211403 | 64 | 82 | 4.0 | 11.0 | 0.00 | 0.00 | 0.00 | 60 | 1016.8 |
| 20260506211316 | 64 | 82 | 4.0 | 11.0 | 0.00 | 0.00 | 0.00 | 60 | 1016.8 |
| 20260506211204 | 64 | 80 | 4.0 | 11.0 | 0.00 | 0.00 | 0.00 | 61 | 1016.8 |
| 20260506211116 | 64 | 80 | 4.0 | 11.0 | 0.00 | 0.00 | 0.00 | 61 | 1016.8 |
| 20260506211003 | 64 | 79 | 4.0 | 11.0 | 0.00 | 0.00 | 0.00 | 61 | 1016.8 |
| 20260506210916 | 64 | 79 | 4.0 | 11.0 | 0.00 | 0.00 | 0.00 | 61 | 1016.8 |
| 20260506210804 | 64 | 79 | 4.0 | 11.0 | 0.00 | 0.00 | 0.00 | 61 | 1016.7 |
| 20260506210716 | 64 | 78 | 4.0 | 7.0 | 0.00 | 0.00 | 0.00 | 61 | 1016.8 |
| 20260506210604 | 64 | 78 | 4.0 | 7.0 | 0.00 | 0.00 | 0.00 | 61 | 1016.7 |
| 20260506210517 | 64 | 77 | 4.0 | 7.0 | 0.00 | 0.00 | 0.00 | 61 | 1016.8 |
| 20260506210404 | 64 | 77 | 4.0 | 7.0 | 0.00 | 0.00 | 0.00 | 61 | 1016.8 |
| 20260506210316 | 64 | 76 | 4.0 | 7.0 | 0.00 | 0.00 | 0.00 | 61 | 1016.7 |
| 20260506210204 | 64 | 76 | 4.0 | 7.0 | 0.00 | 0.00 | 0.00 | 61 | 1016.7 |
| 20260506210116 | 64 | 76 | 4.0 | 7.0 | 0.00 | 0.00 | 0.00 | 61 | 1016.8 |
| 20260506210010 | 64 | 76 | 4.0 | 7.0 | 0.00 | 0.00 | 0.00 | 61 | 1016.8 |
| 20260506205917 | 64 | 76 | 4.0 | 7.0 | 0.00 | 0.00 | 0.00 | 61 | 1016.8 |
| 20260506205804 | 64 | 76 | 4.0 | 7.0 | 0.00 | 0.00 | 0.00 | 61 | 1016.8 |
| 20260506205717 | 64 | 76 | 4.0 | 7.0 | 0.00 | 0.00 | 0.00 | 61 | 1016.8 |
| 20260506205603 | 64 | 76 | 4.0 | 7.0 | 0.00 | 0.00 | 0.00 | 61 | 1016.8 |
| 20260506205516 | 64 | 76 | 4.0 | 7.0 | 0.00 | 0.00 | 0.00 | 61 | 1016.8 |
| 20260506205403 | 64 | 76 | 4.0 | 7.0 | 0.00 | 0.00 | 0.00 | 61 | 1016.8 |
| 20260506205316 | 64 | 76 | 4.0 | 7.0 | 0.00 | 0.00 | 0.00 | 60 | 1016.8 |
| 20260506205203 | 64 | 76 | 4.0 | 7.0 | 0.00 | 0.00 | 0.00 | 60 | 1016.8 |
| 20260506205116 | 64 | 76 | 4.0 | 7.0 | 0.00 | 0.00 | 0.00 | 60 | 1016.8 |
| 20260506205003 | 64 | 76 | 4.0 | 7.0 | 0.00 | 0.00 | 0.00 | 60 | 1016.8 |
| 20260506204916 | 64 | 77 | 4.0 | 7.0 | 0.00 | 0.00 | 0.00 | 60 | 1016.8 |
| 20260506204803 | 64 | 77 | 4.0 | 7.0 | 0.00 | 0.00 | 0.00 | 60 | 1016.8 |
| 20260506204716 | 64 | 78 | 4.0 | 7.0 | 0.00 | 0.00 | 0.00 | 60 | 1016.8 |
| 20260506204604 | 64 | 77 | 4.0 | 7.0 | 0.00 | 0.00 | 0.00 | 60 | 1016.8 |
| 20260506204516 | 64 | 77 | 4.0 | 7.0 | 0.00 | 0.00 | 0.00 | 60 | 1016.8 |
| 20260506204403 | 64 | 77 | 4.0 | 7.0 | 0.00 | 0.00 | 0.00 | 60 | 1016.8 |
| 20260506204315 | 64 | 77 | 4.0 | 7.0 | 0.00 | 0.00 | 0.00 | 60 | 1016.7 |
| 20260506204203 | 64 | 77 | 4.0 | 7.0 | 0.00 | 0.00 | 0.00 | 59 | 1016.7 |
| 20260506204116 | 64 | 76 | 5.0 | 7.0 | 0.00 | 0.00 | 0.00 | 59 | 1016.8 |
| 20260506204003 | 64 | 76 | 5.0 | 7.0 | 0.00 | 0.00 | 0.00 | 59 | 1016.8 |
| 20260506203916 | 64 | 76 | 5.0 | 7.0 | 0.00 | 0.00 | 0.00 | 59 | 1016.8 |
| 20260506203804 | 64 | 76 | 5.0 | 7.0 | 0.00 | 0.00 | 0.00 | 59 | 1016.8 |
| 20260506203716 | 64 | 75 | 5.0 | 7.0 | 0.00 | 0.00 | 0.00 | 59 | 1016.8 |
| 20260506203603 | 64 | 77 | 5.0 | 11.0 | 0.00 | 0.00 | 0.00 | 59 | 1016.8 |
| 20260506203516 | 64 | 77 | 5.0 | 13.0 | 0.00 | 0.00 | 0.00 | 59 | 1016.8 |
| 20260506203404 | 64 | 78 | 6.0 | 13.0 | 0.00 | 0.00 | 0.00 | 59 | 1016.7 |
| 20260506203317 | 64 | 79 | 6.0 | 13.0 | 0.00 | 0.00 | 0.00 | 59 | 1016.8 |
| 20260506203203 | 64 | 79 | 6.0 | 15.0 | 0.00 | 0.00 | 0.00 | 59 | 1016.8 |
| 20260506203116 | 64 | 80 | 6.0 | 15.0 | 0.00 | 0.00 | 0.00 | 59 | 1016.8 |
| 20260506203003 | 64 | 81 | 6.0 | 15.0 | 0.00 | 0.00 | 0.00 | 59 | 1016.7 |
| 20260506202916 | 64 | 82 | 6.0 | 15.0 | 0.00 | 0.00 | 0.00 | 59 | 1016.7 |
| 20260506202803 | 64 | 82 | 6.0 | 15.0 | 0.00 | 0.00 | 0.00 | 59 | 1016.7 |
| 20260506202716 | 64 | 83 | 6.0 | 15.0 | 0.00 | 0.00 | 0.00 | 59 | 1016.7 |
| 20260506202603 | 64 | 84 | 6.0 | 15.0 | 0.00 | 0.00 | 0.00 | 59 | 1016.7 |
| 20260506202517 | 64 | 84 | 6.0 | 15.0 | 0.00 | 0.00 | 0.00 | 58 | 1016.7 |
| 20260506202404 | 64 | 84 | 6.0 | 15.0 | 0.00 | 0.00 | 0.00 | 58 | 1016.7 |
| 20260506202317 | 64 | 84 | 6.0 | 15.0 | 0.00 | 0.00 | 0.00 | 58 | 1016.7 |
| 20260506202203 | 64 | 84 | 5.0 | 13.0 | 0.00 | 0.00 | 0.00 | 57 | 1016.7 |
| 20260506202116 | 64 | 84 | 5.0 | 13.0 | 0.00 | 0.00 | 0.00 | 57 | 1016.7 |
| 20260506202003 | 64 | 84 | 5.0 | 15.0 | 0.00 | 0.00 | 0.00 | 57 | 1016.7 |
| 20260506201916 | 64 | 83 | 5.0 | 15.0 | 0.00 | 0.00 | 0.00 | 56 | 1016.7 |
| 20260506201803 | 64 | 82 | 5.0 | 15.0 | 0.00 | 0.00 | 0.00 | 56 | 1016.7 |
| 20260506201716 | 64 | 81 | 5.0 | 15.0 | 0.00 | 0.00 | 0.00 | 56 | 1016.7 |
| 20260506201603 | 64 | 81 | 5.0 | 15.0 | 0.00 | 0.00 | 0.00 | 56 | 1016.7 |
| 20260506201516 | 64 | 80 | 4.0 | 15.0 | 0.00 | 0.00 | 0.00 | 55 | 1016.7 |
| 20260506201403 | 64 | 80 | 4.0 | 15.0 | 0.00 | 0.00 | 0.00 | 55 | 1016.7 |
| 20260506201316 | 64 | 79 | 4.0 | 15.0 | 0.00 | 0.00 | 0.00 | 55 | 1016.7 |
| 20260506201204 | 64 | 78 | 4.0 | 15.0 | 0.00 | 0.00 | 0.00 | 54 | 1016.7 |
| 20260506201116 | 64 | 78 | 4.0 | 15.0 | 0.00 | 0.00 | 0.00 | 54 | 1016.7 |
| 20260506201003 | 64 | 77 | 4.0 | 13.0 | 0.00 | 0.00 | 0.00 | 54 | 1016.7 |
| 20260506200916 | 64 | 76 | 4.0 | 13.0 | 0.00 | 0.00 | 0.00 | 55 | 1016.7 |
| 20260506200804 | 64 | 75 | 4.0 | 11.0 | 0.00 | 0.00 | 0.00 | 55 | 1016.7 |
| 20260506200716 | 64 | 75 | 4.0 | 11.0 | 0.00 | 0.00 | 0.00 | 55 | 1016.7 |
| 20260506200603 | 64 | 76 | 4.0 | 11.0 | 0.00 | 0.00 | 0.00 | 55 | 1016.7 |
| 20260506200516 | 64 | 76 | 4.0 | 11.0 | 0.00 | 0.00 | 0.00 | 55 | 1016.7 |
| 20260506200403 | 64 | 76 | 4.0 | 11.0 | 0.00 | 0.00 | 0.00 | 55 | 1016.7 |
| 20260506200316 | 64 | 76 | 4.0 | 11.0 | 0.00 | 0.00 | 0.00 | 55 | 1016.6 |
| 20260506200204 | 64 | 76 | 4.0 | 11.0 | 0.00 | 0.00 | 0.00 | 55 | 1016.7 |
| 20260506200117 | 64 | 75 | 4.0 | 11.0 | 0.00 | 0.00 | 0.00 | 55 | 1016.6 |
| 20260506200004 | 64 | 75 | 4.0 | 11.0 | 0.00 | 0.00 | 0.00 | 55 | 1016.6 |
| 20260506195916 | 64 | 75 | 4.0 | 11.0 | 0.00 | 0.00 | 0.00 | 55 | 1016.6 |
| 20260506195804 | 64 | 75 | 4.0 | 7.0 | 0.00 | 0.00 | 0.00 | 55 | 1016.6 |
| 20260506195717 | 64 | 76 | 4.0 | 7.0 | 0.00 | 0.00 | 0.00 | 54 | 1016.6 |
| 20260506195603 | 64 | 76 | 3.0 | 7.0 | 0.00 | 0.00 | 0.00 | 54 | 1016.6 |
| 20260506195516 | 64 | 77 | 3.0 | 7.0 | 0.00 | 0.00 | 0.00 | 54 | 1016.6 |
| 20260506195403 | 64 | 77 | 3.0 | 7.0 | 0.00 | 0.00 | 0.00 | 54 | 1016.5 |
| 20260506195316 | 64 | 78 | 3.0 | 7.0 | 0.00 | 0.00 | 0.00 | 54 | 1016.5 |
| 20260506195203 | 64 | 78 | 3.0 | 7.0 | 0.00 | 0.00 | 0.00 | 54 | 1016.5 |
| 20260506195116 | 64 | 80 | 3.0 | 6.0 | 0.00 | 0.00 | 0.00 | 54 | 1016.5 |
| 20260506195003 | 64 | 81 | 2.0 | 6.0 | 0.00 | 0.00 | 0.00 | 54 | 1016.5 |
| 20260506194916 | 64 | 82 | 2.0 | 6.0 | 0.00 | 0.00 | 0.00 | 54 | 1016.5 |
| 20260506194803 | 64 | 83 | 2.0 | 6.0 | 0.00 | 0.00 | 0.00 | 54 | 1016.5 |
| 20260506194716 | 64 | 84 | 2.0 | 6.0 | 0.00 | 0.00 | 0.00 | 54 | 1016.5 |
| 20260506194603 | 64 | 85 | 2.0 | 6.0 | 0.00 | 0.00 | 0.00 | 54 | 1016.5 |
| 20260506194516 | 64 | 86 | 2.0 | 6.0 | 0.00 | 0.00 | 0.00 | 54 | 1016.5 |
| 20260506194403 | 64 | 86 | 2.0 | 6.0 | 0.00 | 0.00 | 0.00 | 54 | 1016.5 |
| 20260506194316 | 64 | 87 | 2.0 | 6.0 | 0.00 | 0.00 | 0.00 | 54 | 1016.5 |
| 20260506194203 | 64 | 87 | 2.0 | 6.0 | 0.00 | 0.00 | 0.00 | 54 | 1016.5 |
| 20260506194116 | 64 | 88 | 2.0 | 6.0 | 0.00 | 0.00 | 0.00 | 54 | 1016.5 |
| 20260506194003 | 64 | 89 | 3.0 | 6.0 | 0.00 | 0.00 | 0.00 | 54 | 1016.5 |
| 20260506193916 | 64 | 89 | 3.0 | 6.0 | 0.00 | 0.00 | 0.00 | 54 | 1016.4 |
| 20260506193804 | 64 | 87 | 3.0 | 6.0 | 0.00 | 0.00 | 0.00 | 54 | 1016.5 |
| 20260506193717 | 64 | 83 | 3.0 | 7.0 | 0.00 | 0.00 | 0.00 | 54 | 1016.4 |
| 20260506193604 | 64 | 79 | 4.0 | 7.0 | 0.00 | 0.00 | 0.00 | 53 | 1016.5 |
| 20260506193516 | 64 | 78 | 4.0 | 7.0 | 0.00 | 0.00 | 0.00 | 53 | 1016.4 |
| 20260506193403 | 64 | 77 | 4.0 | 7.0 | 0.00 | 0.00 | 0.00 | 53 | 1016.4 |
| 20260506193317 | 64 | 76 | 4.0 | 7.0 | 0.00 | 0.00 | 0.00 | 52 | 1016.4 |
| 20260506193204 | 64 | 76 | 4.0 | 7.0 | 0.00 | 0.00 | 0.00 | 52 | 1016.4 |
| 20260506193117 | 64 | 76 | 3.0 | 7.0 | 0.00 | 0.00 | 0.00 | 52 | 1016.5 |
| 20260506193003 | 64 | 76 | 3.0 | 7.0 | 0.00 | 0.00 | 0.00 | 51 | 1016.4 |
| 20260506192916 | 65 | 75 | 3.0 | 7.0 | 0.00 | 0.00 | 0.00 | 51 | 1016.4 |
| 20260506192804 | 65 | 75 | 3.0 | 7.0 | 0.00 | 0.00 | 0.00 | 51 | 1016.5 |
| 20260506192717 | 65 | 75 | 3.0 | 6.0 | 0.00 | 0.00 | 0.00 | 51 | 1016.4 |
| 20260506192603 | 65 | 76 | 3.0 | 6.0 | 0.00 | 0.00 | 0.00 | 50 | 1016.4 |
| 20260506192516 | 65 | 76 | 2.0 | 6.0 | 0.00 | 0.00 | 0.00 | 51 | 1016.5 |
| 20260506192403 | 65 | 75 | 2.0 | 6.0 | 0.00 | 0.00 | 0.00 | 50 | 1016.4 |
| 20260506192316 | 65 | 75 | 2.0 | 6.0 | 0.00 | 0.00 | 0.00 | 50 | 1016.4 |
| 20260506192203 | 65 | 75 | 2.0 | 6.0 | 0.00 | 0.00 | 0.00 | 50 | 1016.4 |
| 20260506192116 | 65 | 75 | 2.0 | 6.0 | 0.00 | 0.00 | 0.00 | 50 | 1016.4 |
| 20260506192004 | 65 | 75 | 2.0 | 6.0 | 0.00 | 0.00 | 0.00 | 50 | 1016.4 |
| 20260506191916 | 65 | 75 | 2.0 | 6.0 | 0.00 | 0.00 | 0.00 | 49 | 1016.4 |
| 20260506191803 | 65 | 75 | 2.0 | 6.0 | 0.00 | 0.00 | 0.00 | 49 | 1016.4 |
| 20260506191716 | 65 | 76 | 2.0 | 6.0 | 0.00 | 0.00 | 0.00 | 49 | 1016.4 |
| 20260506191603 | 65 | 75 | 2.0 | 6.0 | 0.00 | 0.00 | 0.00 | 49 | 1016.3 |
| 20260506191516 | 65 | 75 | 2.0 | 6.0 | 0.00 | 0.00 | 0.00 | 49 | 1016.3 |
| 20260506191403 | 65 | 75 | 2.0 | 6.0 | 0.00 | 0.00 | 0.00 | 49 | 1016.3 |
| 20260506191317 | 65 | 75 | 2.0 | 6.0 | 0.00 | 0.00 | 0.00 | 49 | 1016.3 |
| 20260506191203 | 66 | 75 | 2.0 | 4.0 | 0.00 | 0.00 | 0.00 | 49 | 1016.3 |
| 20260506191116 | 66 | 75 | 3.0 | 6.0 | 0.00 | 0.00 | 0.00 | 48 | 1016.3 |
| 20260506191004 | 66 | 76 | 3.0 | 6.0 | 0.00 | 0.00 | 0.00 | 49 | 1016.3 |
| 20260506190916 | 66 | 76 | 3.0 | 6.0 | 0.00 | 0.00 | 0.00 | 49 | 1016.3 |
| 20260506190804 | 66 | 76 | 3.0 | 6.0 | 0.00 | 0.00 | 0.00 | 48 | 1016.2 |
| 20260506190716 | 66 | 76 | 3.0 | 6.0 | 0.00 | 0.00 | 0.00 | 48 | 1016.2 |
| 20260506190603 | 66 | 76 | 3.0 | 6.0 | 0.00 | 0.00 | 0.00 | 48 | 1016.2 |
| 20260506190516 | 66 | 76 | 3.0 | 6.0 | 0.00 | 0.00 | 0.00 | 48 | 1016.2 |
| 20260506190403 | 66 | 77 | 3.0 | 6.0 | 0.00 | 0.00 | 0.00 | 48 | 1016.2 |
| 20260506190317 | 66 | 80 | 2.0 | 6.0 | 0.00 | 0.00 | 0.00 | 48 | 1016.1 |
| 20260506190204 | 66 | 82 | 2.0 | 6.0 | 0.00 | 0.00 | 0.00 | 48 | 1016.1 |
| 20260506190117 | 66 | 85 | 2.0 | 6.0 | 0.00 | 0.00 | 0.00 | 48 | 1016.1 |
| 20260506190003 | 66 | 90 | 2.0 | 6.0 | 0.00 | 0.00 | 0.00 | 48 | 1016.1 |
| 20260506185916 | 66 | 90 | 2.0 | 6.0 | 0.00 | 0.00 | 0.00 | 48 | 1016.1 |
| 20260506185803 | 66 | 90 | 2.0 | 6.0 | 0.00 | 0.00 | 0.00 | 48 | 1016.1 |
| 20260506185716 | 66 | 90 | 2.0 | 6.0 | 0.00 | 0.00 | 0.00 | 48 | 1016.1 |
| 20260506185604 | 66 | 93 | 2.0 | 6.0 | 0.00 | 0.00 | 0.00 | 48 | 1016.0 |
| 20260506185516 | 66 | 97 | 2.0 | 6.0 | 0.00 | 0.00 | 0.00 | 47 | 1016.0 |
| 20260506185403 | 66 | 97 | 3.0 | 6.0 | 0.00 | 0.00 | 0.00 | 47 | 1016.0 |
| 20260506185316 | 66 | 88 | 3.0 | 6.0 | 0.00 | 0.00 | 0.00 | 47 | 1016.0 |
| 20260506185203 | 66 | 82 | 3.0 | 6.0 | 0.00 | 0.00 | 0.00 | 47 | 1016.0 |
| 20260506185117 | 66 | 74 | 4.0 | 6.0 | 0.00 | 0.00 | 0.00 | 47 | 1016.0 |
| 20260506185004 | 66 | 71 | 4.0 | 7.0 | 0.00 | 0.00 | 0.00 | 47 | 1015.9 |
| 20260506184916 | 66 | 72 | 4.0 | 7.0 | 0.00 | 0.00 | 0.00 | 47 | 1015.9 |
| 20260506184804 | 66 | 74 | 4.0 | 11.0 | 0.00 | 0.00 | 0.00 | 47 | 1015.9 |
| 20260506184717 | 66 | 76 | 4.0 | 11.0 | 0.00 | 0.00 | 0.00 | 48 | 1015.9 |
| 20260506184604 | 66 | 78 | 4.0 | 11.0 | 0.00 | 0.00 | 0.00 | 48 | 1015.9 |
| 20260506184516 | 66 | 79 | 5.0 | 11.0 | 0.00 | 0.00 | 0.00 | 48 | 1015.9 |
| 20260506184403 | 66 | 80 | 5.0 | 11.0 | 0.00 | 0.00 | 0.00 | 48 | 1015.9 |
| 20260506184317 | 66 | 82 | 5.0 | 11.0 | 0.00 | 0.00 | 0.00 | 48 | 1015.8 |
| 20260506184204 | 66 | 84 | 5.0 | 13.0 | 0.00 | 0.00 | 0.00 | 47 | 1015.8 |
| 20260506184117 | 66 | 85 | 5.0 | 13.0 | 0.00 | 0.00 | 0.00 | 47 | 1015.8 |
| 20260506184004 | 66 | 84 | 5.0 | 15.0 | 0.00 | 0.00 | 0.00 | 48 | 1015.8 |
| 20260506183916 | 66 | 85 | 5.0 | 15.0 | 0.00 | 0.00 | 0.00 | 48 | 1015.8 |
| 20260506183804 | 66 | 85 | 5.0 | 15.0 | 0.00 | 0.00 | 0.00 | 48 | 1015.7 |
| 20260506183717 | 66 | 85 | 5.0 | 15.0 | 0.00 | 0.00 | 0.00 | 48 | 1015.7 |
| 20260506183604 | 66 | 84 | 5.0 | 15.0 | 0.00 | 0.00 | 0.00 | 48 | 1015.7 |
| 20260506183516 | 66 | 84 | 5.0 | 15.0 | 0.00 | 0.00 | 0.00 | 48 | 1015.7 |
| 20260506183403 | 66 | 84 | 5.0 | 15.0 | 0.00 | 0.00 | 0.00 | 48 | 1015.7 |
| 20260506183317 | 66 | 83 | 5.0 | 15.0 | 0.00 | 0.00 | 0.00 | 48 | 1015.7 |
| 20260506183204 | 66 | 83 | 4.0 | 15.0 | 0.00 | 0.00 | 0.00 | 47 | 1015.6 |
| 20260506183117 | 66 | 83 | 4.0 | 15.0 | 0.00 | 0.00 | 0.00 | 47 | 1015.6 |
| 20260506183005 | 66 | 85 | 4.0 | 13.0 | 0.00 | 0.00 | 0.00 | 47 | 1015.6 |
| 20260506182917 | 66 | 85 | 4.0 | 13.0 | 0.00 | 0.00 | 0.00 | 47 | 1015.6 |
| 20260506182803 | 66 | 85 | 4.0 | 13.0 | 0.00 | 0.00 | 0.00 | 47 | 1015.6 |
| 20260506182716 | 66 | 86 | 4.0 | 11.0 | 0.00 | 0.00 | 0.00 | 47 | 1015.6 |
| 20260506182604 | 66 | 86 | 4.0 | 9.0 | 0.00 | 0.00 | 0.00 | 47 | 1015.5 |
| 20260506182516 | 66 | 86 | 4.0 | 9.0 | 0.00 | 0.00 | 0.00 | 47 | 1015.5 |
| 20260506182403 | 66 | 86 | 4.0 | 13.0 | 0.00 | 0.00 | 0.00 | 47 | 1015.5 |
| 20260506182317 | 66 | 86 | 4.0 | 13.0 | 0.00 | 0.00 | 0.00 | 47 | 1015.5 |
| 20260506182204 | 66 | 86 | 4.0 | 13.0 | 0.00 | 0.00 | 0.00 | 47 | 1015.5 |
| 20260506182117 | 66 | 86 | 4.0 | 13.0 | 0.00 | 0.00 | 0.00 | 47 | 1015.4 |
| 20260506182003 | 66 | 86 | 4.0 | 13.0 | 0.00 | 0.00 | 0.00 | 47 | 1015.4 |
| 20260506181917 | 66 | 86 | 4.0 | 13.0 | 0.00 | 0.00 | 0.00 | 47 | 1015.4 |
| 20260506181804 | 66 | 87 | 4.0 | 13.0 | 0.00 | 0.00 | 0.00 | 47 | 1015.4 |
| 20260506181717 | 66 | 87 | 4.0 | 13.0 | 0.00 | 0.00 | 0.00 | 47 | 1015.4 |
| 20260506181604 | 67 | 87 | 4.0 | 13.0 | 0.00 | 0.00 | 0.00 | 47 | 1015.4 |
| 20260506181517 | 67 | 87 | 5.0 | 13.0 | 0.00 | 0.00 | 0.00 | 47 | 1015.4 |
| 20260506181403 | 67 | 88 | 5.0 | 11.0 | 0.00 | 0.00 | 0.00 | 47 | 1015.4 |
| 20260506181316 | 67 | 88 | 5.0 | 11.0 | 0.00 | 0.00 | 0.00 | 47 | 1015.4 |
| 20260506181203 | 67 | 89 | 5.0 | 11.0 | 0.00 | 0.00 | 0.00 | 47 | 1015.4 |
| 20260506181117 | 67 | 88 | 5.0 | 13.0 | 0.00 | 0.00 | 0.00 | 47 | 1015.3 |
| 20260506181003 | 67 | 87 | 5.0 | 13.0 | 0.00 | 0.00 | 0.00 | 47 | 1015.3 |
| 20260506180917 | 67 | 86 | 5.0 | 15.0 | 0.00 | 0.00 | 0.00 | 47 | 1015.3 |
| 20260506180803 | 67 | 86 | 6.0 | 15.0 | 0.00 | 0.00 | 0.00 | 47 | 1015.4 |
| 20260506180716 | 67 | 86 | 6.0 | 15.0 | 0.00 | 0.00 | 0.00 | 47 | 1015.3 |
| 20260506180604 | 67 | 86 | 6.0 | 15.0 | 0.00 | 0.00 | 0.00 | 47 | 1015.3 |
| 20260506180516 | 67 | 85 | 6.0 | 15.0 | 0.00 | 0.00 | 0.00 | 47 | 1015.3 |
| 20260506180403 | 67 | 85 | 5.0 | 15.0 | 0.00 | 0.00 | 0.00 | 47 | 1015.3 |
| 20260506180317 | 67 | 84 | 5.0 | 15.0 | 0.00 | 0.00 | 0.00 | 47 | 1015.3 |
| 20260506180203 | 67 | 84 | 5.0 | 15.0 | 0.00 | 0.00 | 0.00 | 47 | 1015.3 |
| 20260506180116 | 67 | 84 | 5.0 | 15.0 | 0.00 | 0.00 | 0.00 | 47 | 1015.2 |
| 20260506180005 | 67 | 84 | 5.0 | 15.0 | 0.00 | 0.00 | 0.00 | 47 | 1015.2 |
| 20260506175917 | 67 | 84 | 5.0 | 13.0 | 0.00 | 0.00 | 0.00 | 47 | 1015.3 |
| 20260506175804 | 67 | 83 | 5.0 | 13.0 | 0.00 | 0.00 | 0.00 | 46 | 1015.2 |
| 20260506175716 | 67 | 84 | 5.0 | 13.0 | 0.00 | 0.00 | 0.00 | 46 | 1015.2 |
| 20260506175604 | 67 | 84 | 5.0 | 13.0 | 0.00 | 0.00 | 0.00 | 46 | 1015.2 |
| 20260506175517 | 67 | 84 | 5.0 | 13.0 | 0.00 | 0.00 | 0.00 | 46 | 1015.2 |
| 20260506175404 | 67 | 84 | 5.0 | 13.0 | 0.00 | 0.00 | 0.00 | 46 | 1015.2 |
| 20260506175317 | 67 | 83 | 5.0 | 13.0 | 0.00 | 0.00 | 0.00 | 46 | 1015.2 |
| 20260506175203 | 67 | 82 | 5.0 | 13.0 | 0.00 | 0.00 | 0.00 | 46 | 1015.2 |
| 20260506175116 | 67 | 82 | 5.0 | 13.0 | 0.00 | 0.00 | 0.00 | 46 | 1015.2 |
| 20260506175004 | 67 | 82 | 5.0 | 13.0 | 0.00 | 0.00 | 0.00 | 46 | 1015.2 |
| 20260506174917 | 68 | 82 | 5.0 | 13.0 | 0.00 | 0.00 | 0.00 | 46 | 1015.2 |
| 20260506174804 | 68 | 82 | 5.0 | 13.0 | 0.00 | 0.00 | 0.00 | 46 | 1015.2 |
| 20260506174717 | 68 | 81 | 5.0 | 13.0 | 0.00 | 0.00 | 0.00 | 46 | 1015.2 |
| 20260506174604 | 68 | 81 | 5.0 | 13.0 | 0.00 | 0.00 | 0.00 | 46 | 1015.2 |
| 20260506174516 | 68 | 81 | 5.0 | 13.0 | 0.00 | 0.00 | 0.00 | 46 | 1015.2 |
| 20260506174403 | 68 | 81 | 5.0 | 13.0 | 0.00 | 0.00 | 0.00 | 46 | 1015.2 |
| 20260506174317 | 68 | 81 | 5.0 | 13.0 | 0.00 | 0.00 | 0.00 | 46 | 1015.2 |
| 20260506174204 | 68 | 82 | 5.0 | 11.0 | 0.00 | 0.00 | 0.00 | 46 | 1015.1 |
| 20260506174117 | 68 | 83 | 5.0 | 11.0 | 0.00 | 0.00 | 0.00 | 46 | 1015.2 |
| 20260506174003 | 68 | 82 | 5.0 | 11.0 | 0.00 | 0.00 | 0.00 | 46 | 1015.1 |
| 20260506173917 | 68 | 82 | 5.0 | 11.0 | 0.00 | 0.00 | 0.00 | 46 | 1015.2 |
| 20260506173804 | 68 | 82 | 5.0 | 11.0 | 0.00 | 0.00 | 0.00 | 46 | 1015.1 |
| 20260506173717 | 68 | 82 | 5.0 | 11.0 | 0.00 | 0.00 | 0.00 | 47 | 1015.1 |
| 20260506173604 | 68 | 82 | 5.0 | 11.0 | 0.00 | 0.00 | 0.00 | 47 | 1015.1 |
| 20260506173517 | 68 | 82 | 5.0 | 11.0 | 0.00 | 0.00 | 0.00 | 47 | 1015.1 |
| 20260506173404 | 68 | 82 | 5.0 | 11.0 | 0.00 | 0.00 | 0.00 | 47 | 1015.1 |
| 20260506173316 | 68 | 83 | 5.0 | 13.0 | 0.00 | 0.00 | 0.00 | 47 | 1015.2 |
| 20260506173203 | 68 | 82 | 5.0 | 13.0 | 0.00 | 0.00 | 0.00 | 47 | 1015.1 |
| 20260506173117 | 68 | 82 | 5.0 | 15.0 | 0.00 | 0.00 | 0.00 | 47 | 1015.2 |
| 20260506173004 | 68 | 82 | 5.0 | 15.0 | 0.00 | 0.00 | 0.00 | 47 | 1015.2 |
| 20260506172916 | 68 | 82 | 5.0 | 15.0 | 0.00 | 0.00 | 0.00 | 47 | 1015.1 |
| 20260506172803 | 68 | 83 | 5.0 | 15.0 | 0.00 | 0.00 | 0.00 | 47 | 1015.1 |
| 20260506172717 | 68 | 83 | 5.0 | 15.0 | 0.00 | 0.00 | 0.00 | 47 | 1015.1 |
| 20260506172603 | 68 | 82 | 5.0 | 15.0 | 0.00 | 0.00 | 0.00 | 47 | 1015.2 |
| 20260506172516 | 69 | 82 | 5.0 | 15.0 | 0.00 | 0.00 | 0.00 | 47 | 1015.1 |
| 20260506172404 | 69 | 82 | 5.0 | 15.0 | 0.00 | 0.00 | 0.00 | 46 | 1015.2 |
| 20260506172317 | 69 | 81 | 5.0 | 15.0 | 0.00 | 0.00 | 0.00 | 46 | 1015.2 |
| 20260506172204 | 69 | 82 | 4.0 | 15.0 | 0.00 | 0.00 | 0.00 | 46 | 1015.1 |
| 20260506172117 | 69 | 82 | 4.0 | 11.0 | 0.00 | 0.00 | 0.00 | 46 | 1015.1 |
| 20260506172004 | 69 | 84 | 4.0 | 11.0 | 0.00 | 0.00 | 0.00 | 45 | 1015.1 |
| 20260506171917 | 69 | 84 | 4.0 | 11.0 | 0.00 | 0.00 | 0.00 | 45 | 1015.1 |
| 20260506171803 | 69 | 84 | 4.0 | 11.0 | 0.00 | 0.00 | 0.00 | 44 | 1015.1 |
| 20260506171717 | 69 | 84 | 4.0 | 11.0 | 0.00 | 0.00 | 0.00 | 44 | 1015.1 |
| 20260506171604 | 69 | 84 | 4.0 | 11.0 | 0.00 | 0.00 | 0.00 | 43 | 1015.1 |
| 20260506171518 | 69 | 86 | 4.0 | 9.0 | 0.00 | 0.00 | 0.00 | 43 | 1015.1 |
| 20260506171404 | 70 | 89 | 3.0 | 9.0 | 0.00 | 0.00 | 0.00 | 43 | 1015.1 |
| 20260506171317 | 70 | 90 | 3.0 | 9.0 | 0.00 | 0.00 | 0.00 | 42 | 1015.0 |
| 20260506171203 | 70 | 91 | 3.0 | 9.0 | 0.00 | 0.00 | 0.00 | 42 | 1015.1 |
| 20260506171117 | 70 | 93 | 3.0 | 9.0 | 0.00 | 0.00 | 0.00 | 42 | 1015.1 |
| 20260506171003 | 70 | 93 | 3.0 | 9.0 | 0.00 | 0.00 | 0.00 | 41 | 1015.1 |
| 20260506170917 | 70 | 96 | 3.0 | 9.0 | 0.00 | 0.00 | 0.00 | 41 | 1015.1 |
| 20260506170804 | 70 | 98 | 3.0 | 9.0 | 0.00 | 0.00 | 0.00 | 41 | 1015.1 |
| 20260506170717 | 70 | 102 | 3.0 | 9.0 | 0.00 | 0.00 | 0.00 | 41 | 1015.1 |
| 20260506170604 | 71 | 109 | 3.0 | 6.0 | 0.00 | 0.00 | 0.00 | 40 | 1015.1 |
| 20260506170516 | 71 | 109 | 3.0 | 6.0 | 0.00 | 0.00 | 0.00 | 40 | 1015.1 |
| 20260506170403 | 71 | 111 | 3.0 | 6.0 | 0.00 | 0.00 | 0.00 | 40 | 1015.1 |
| 20260506170317 | 71 | 112 | 3.0 | 6.0 | 0.00 | 0.00 | 0.00 | 40 | 1015.1 |
| 20260506170204 | 71 | 114 | 3.0 | 6.0 | 0.00 | 0.00 | 0.00 | 40 | 1015.1 |
| 20260506170116 | 71 | 116 | 3.0 | 6.0 | 0.00 | 0.00 | 0.00 | 40 | 1015.1 |
| 20260506170004 | 71 | 117 | 3.0 | 6.0 | 0.00 | 0.00 | 0.00 | 41 | 1015.1 |
| 20260506165917 | 71 | 121 | 3.0 | 6.0 | 0.00 | 0.00 | 0.00 | 41 | 1015.1 |
| 20260506165804 | 71 | 126 | 3.0 | 6.0 | 0.00 | 0.00 | 0.00 | 41 | 1015.1 |
| 20260506165716 | 71 | 128 | 3.0 | 6.0 | 0.00 | 0.00 | 0.00 | 41 | 1015.1 |
| 20260506165604 | 71 | 128 | 3.0 | 6.0 | 0.00 | 0.00 | 0.00 | 41 | 1015.1 |
| 20260506165517 | 71 | 125 | 3.0 | 6.0 | 0.00 | 0.00 | 0.00 | 41 | 1015.1 |
| 20260506165404 | 71 | 126 | 3.0 | 6.0 | 0.00 | 0.00 | 0.00 | 42 | 1015.1 |
| 20260506165317 | 71 | 129 | 3.0 | 6.0 | 0.00 | 0.00 | 0.00 | 42 | 1015.1 |
| 20260506165204 | 72 | 133 | 3.0 | 7.0 | 0.00 | 0.00 | 0.00 | 42 | 1015.1 |
| 20260506165117 | 72 | 133 | 2.0 | 7.0 | 0.00 | 0.00 | 0.00 | 42 | 1015.2 |
| 20260506165003 | 72 | 133 | 2.0 | 7.0 | 0.00 | 0.00 | 0.00 | 42 | 1015.1 |
| 20260506164917 | 72 | 131 | 2.0 | 7.0 | 0.00 | 0.00 | 0.00 | 43 | 1015.1 |
| 20260506164804 | 72 | 130 | 2.0 | 7.0 | 0.00 | 0.00 | 0.00 | 44 | 1015.2 |
| 20260506164716 | 72 | 130 | 2.0 | 7.0 | 0.00 | 0.00 | 0.00 | 43 | 1015.2 |
| 20260506164603 | 72 | 132 | 2.0 | 7.0 | 0.00 | 0.00 | 0.00 | 44 | 1015.1 |
| 20260506164517 | 72 | 134 | 2.0 | 7.0 | 0.00 | 0.00 | 0.00 | 44 | 1015.2 |
| 20260506164404 | 72 | 137 | 2.0 | 7.0 | 0.00 | 0.00 | 0.00 | 44 | 1015.2 |
| 20260506164316 | 72 | 144 | 2.0 | 7.0 | 0.00 | 0.00 | 0.00 | 44 | 1015.2 |
| 20260506164203 | 72 | 159 | 3.0 | 7.0 | 0.00 | 0.00 | 0.00 | 46 | 1015.2 |
| 20260506164117 | 72 | 173 | 3.0 | 6.0 | 0.00 | 0.00 | 0.00 | 46 | 1015.2 |
| 20260506164004 | 72 | 183 | 3.0 | 6.0 | 0.00 | 0.00 | 0.00 | 46 | 1015.2 |
| 20260506163917 | 72 | 186 | 3.0 | 6.0 | 0.00 | 0.00 | 0.00 | 45 | 1015.2 |
| 20260506163803 | 72 | 186 | 3.0 | 6.0 | 0.00 | 0.00 | 0.00 | 45 | 1015.3 |
| 20260506163717 | 72 | 186 | 3.0 | 6.0 | 0.00 | 0.00 | 0.00 | 45 | 1015.2 |
| 20260506163604 | 71 | 190 | 3.0 | 6.0 | 0.00 | 0.00 | 0.00 | 46 | 1015.2 |
| 20260506163517 | 71 | 193 | 3.0 | 7.0 | 0.00 | 0.00 | 0.00 | 46 | 1015.2 |
| 20260506163404 | 71 | 190 | 3.0 | 7.0 | 0.00 | 0.00 | 0.00 | 46 | 1015.2 |
| 20260506163317 | 71 | 187 | 3.0 | 7.0 | 0.00 | 0.00 | 0.00 | 46 | 1015.2 |
| 20260506163204 | 72 | 182 | 4.0 | 7.0 | 0.00 | 0.00 | 0.00 | 46 | 1015.2 |
| 20260506163117 | 72 | 181 | 4.0 | 7.0 | 0.00 | 0.00 | 0.00 | 46 | 1015.2 |
| 20260506163004 | 72 | 178 | 4.0 | 7.0 | 0.00 | 0.00 | 0.00 | 46 | 1015.2 |
| 20260506162916 | 72 | 178 | 4.0 | 7.0 | 0.00 | 0.00 | 0.00 | 46 | 1015.2 |
| 20260506162803 | 72 | 178 | 4.0 | 7.0 | 0.00 | 0.00 | 0.00 | 46 | 1015.2 |
| 20260506162717 | 72 | 178 | 4.0 | 7.0 | 0.00 | 0.00 | 0.00 | 46 | 1015.3 |
| 20260506162604 | 72 | 181 | 4.0 | 9.0 | 0.00 | 0.00 | 0.00 | 46 | 1015.3 |
| 20260506162517 | 72 | 182 | 4.0 | 9.0 | 0.00 | 0.00 | 0.00 | 46 | 1015.2 |
| 20260506162403 | 72 | 183 | 4.0 | 9.0 | 0.00 | 0.00 | 0.00 | 47 | 1015.3 |
| 20260506162316 | 72 | 184 | 5.0 | 9.0 | 0.00 | 0.00 | 0.00 | 47 | 1015.3 |
| 20260506162204 | 72 | 186 | 5.0 | 9.0 | 0.00 | 0.00 | 0.00 | 47 | 1015.3 |
| 20260506162117 | 72 | 185 | 5.0 | 9.0 | 0.00 | 0.00 | 0.00 | 47 | 1015.3 |
| 20260506162003 | 72 | 184 | 5.0 | 9.0 | 0.00 | 0.00 | 0.00 | 47 | 1015.2 |
| 20260506161917 | 72 | 183 | 5.0 | 11.0 | 0.00 | 0.00 | 0.00 | 46 | 1015.3 |
| 20260506161804 | 72 | 187 | 5.0 | 11.0 | 0.00 | 0.00 | 0.00 | 47 | 1015.3 |
| 20260506161716 | 72 | 185 | 5.0 | 11.0 | 0.00 | 0.00 | 0.00 | 47 | 1015.3 |
| 20260506161604 | 72 | 185 | 6.0 | 11.0 | 0.00 | 0.00 | 0.00 | 48 | 1015.3 |
| 20260506161517 | 72 | 185 | 6.0 | 13.0 | 0.00 | 0.00 | 0.00 | 48 | 1015.3 |
| 20260506161403 | 72 | 186 | 6.0 | 13.0 | 0.00 | 0.00 | 0.00 | 48 | 1015.3 |
| 20260506161317 | 72 | 184 | 7.0 | 18.0 | 0.00 | 0.00 | 0.00 | 49 | 1015.3 |
| 20260506161203 | 72 | 184 | 7.0 | 18.0 | 0.00 | 0.00 | 0.00 | 49 | 1015.3 |
| 20260506161116 | 72 | 185 | 7.0 | 18.0 | 0.00 | 0.00 | 0.00 | 49 | 1015.3 |
| 20260506161004 | 72 | 183 | 7.0 | 18.0 | 0.00 | 0.00 | 0.00 | 49 | 1015.3 |
| 20260506160917 | 72 | 184 | 7.0 | 18.0 | 0.00 | 0.00 | 0.00 | 48 | 1015.3 |
| 20260506160803 | 72 | 183 | 8.0 | 18.0 | 0.00 | 0.00 | 0.00 | 48 | 1015.3 |
| 20260506160716 | 72 | 188 | 8.0 | 18.0 | 0.00 | 0.00 | 0.00 | 48 | 1015.3 |
| 20260506160603 | 72 | 192 | 8.0 | 18.0 | 0.00 | 0.00 | 0.00 | 47 | 1015.3 |
| 20260506160517 | 72 | 193 | 8.0 | 18.0 | 0.00 | 0.00 | 0.00 | 47 | 1015.3 |
| 20260506160404 | 72 | 197 | 8.0 | 18.0 | 0.00 | 0.00 | 0.00 | 47 | 1015.3 |
| 20260506160317 | 72 | 201 | 8.0 | 18.0 | 0.00 | 0.00 | 0.00 | 47 | 1015.3 |
| 20260506160204 | 72 | 205 | 8.0 | 18.0 | 0.00 | 0.00 | 0.00 | 47 | 1015.3 |
| 20260506160117 | 72 | 207 | 8.0 | 18.0 | 0.00 | 0.00 | 0.00 | 47 | 1015.3 |
| 20260506160003 | 72 | 209 | 8.0 | 18.0 | 0.00 | 0.00 | 0.00 | 47 | 1015.3 |
| 20260506155916 | 72 | 209 | 7.0 | 18.0 | 0.00 | 0.00 | 0.00 | 48 | 1015.3 |
| 20260506155804 | 72 | 210 | 7.0 | 18.0 | 0.00 | 0.00 | 0.00 | 47 | 1015.3 |